[{"header": {"dx": 0.06612293990616946, "dy": 0.0552356325346848, "nx": 98, "ny": 59, "la1": 35.046912555036876, "la2": 31.78801023549047, "lo1": -121.43107172385933, "lo2": -114.95102361305473, "refTime": "2026041310", "parameterCategory": 1, "parameterNumber": 2}, "data": [4.47, 4.75, 4.75, 4.75, 4.75, 4.75, 4.45, 4.45, 3.84, 4.12, 4.12, 3.22, 1.2, 0.57, 0.63, 0.45, 1.34, 2.24, 2.68, 3.13, 3.58, 3.82, 4.38, 4.92, 5.36, 5.36, 4.92, 3.07, 3.74, 4.46, 4.46, 4.46, 4.12, 4.46, 3.32, 2.24, 0.89, 0.0, 0.0, 0.0, 1.49, 3.93, 5.75, 7.2, 8.8, 9.84, 11.99, 12.79, 11.09, 5.81, 3.07, 3.11, 4.65, 5.69, 6.01, 7.02, 7.68, 8.32, 8.67, 8.63, 7.67, 7.03, 7.07, 7.07, 7.28, 8.63, 10.15, 11.62, 13.49, 15.41, 16.33, 16.05, 14.44, 12.3, 9.54, 7.21, 1.61, -1.88, -4.4, -4.4, -4.73, -4.87, -4.92, -4.47, -3.58, -1.79, 0.0, 1.79, 5.81, 10.62, 13.21, 12.74, 11.96, 11.15, 11.18, 12.07, 12.94, 13.39, 4.75, 4.75, 4.75, 4.75, 4.75, 4.75, 4.45, 4.74, 4.12, 4.12, 3.83, 2.53, 1.9, 1.7, 1.79, 1.79, 0.89, 2.24, 2.68, 2.68, 3.13, 4.02, 4.47, 2.68, 2.68, 2.68, 2.68, 3.04, 3.32, 3.49, 3.79, 4.46, 3.79, 3.48, 4.46, 4.66, 4.02, 0.95, 0.0, 0.0, 1.98, 5.01, 6.7, 8.06, 9.3, 11.5, 12.08, 10.15, 5.77, 3.16, 3.64, 4.65, 5.37, 5.69, 5.69, 7.02, 7.68, 8.68, 9.27, 9.2, 8.24, 7.67, 7.44, 7.32, 7.67, 8.67, 10.23, 11.62, 13.07, 14.92, 16.33, 16.09, 14.87, 12.77, 10.45, 9.11, 4.8, -1.88, -4.4, -4.4, -4.73, -4.87, -4.92, -4.47, -3.58, -1.79, 0.0, 1.79, 5.81, 10.62, 13.21, 12.74, 11.96, 11.15, 11.18, 12.07, 12.94, 13.39, 4.75, 4.75, 4.75, 4.75, 4.75, 4.75, 4.74, 4.74, 4.43, 4.71, 4.11, 4.07, 2.4, 2.24, 1.79, 1.34, 0.89, 2.24, 2.54, 3.13, 2.97, 4.02, 4.47, 4.92, 4.02, 2.6, 3.04, 2.91, 2.8, 2.5, 2.86, 2.84, 2.51, 4.29, 4.4, 5.73, 4.47, 3.07, 0.8, 0.0, 3.35, 7.06, 9.04, 9.66, 10.29, 10.48, 9.08, 5.81, 3.83, 4.43, 5.06, 5.37, 5.37, 5.69, 5.69, 6.68, 7.68, 9.27, 9.27, 9.2, 8.55, 7.07, 7.07, 7.06, 7.69, 8.88, 10.8, 11.88, 13.23, 14.92, 16.33, 17.0, 16.37, 13.32, 9.36, 8.36, 5.16, -0.57, -4.24, -4.73, -4.24, -4.41, -4.47, -5.36, -4.47, -2.68, 0.0, 2.12, 6.36, 11.66, 13.49, 11.84, 9.72, 9.36, 9.83, 11.18, 12.52, 12.96, 4.75, 4.75, 4.75, 4.75, 4.75, 4.45, 4.74, 4.43, 4.43, 4.71, 4.11, 4.0, 1.86, 1.79, 1.79, 1.79, 1.34, 1.79, 2.54, 2.97, 3.47, 1.79, 2.68, 4.02, 4.41, 3.04, 3.32, 3.74, 2.91, 2.4, 1.86, 1.86, 2.23, 4.34, 5.7, 5.36, 5.36, 5.4, 3.84, 2.98, 4.83, 7.64, 8.3, 8.3, 8.0, 7.28, 5.81, 4.93, 5.09, 5.43, 5.38, 5.37, 5.37, 5.3, 5.59, 7.02, 8.06, 9.27, 9.74, 9.49, 8.14, 6.7, 6.79, 6.7, 7.69, 8.88, 10.23, 11.73, 13.18, 14.27, 16.54, 17.73, 17.15, 12.5, 6.26, 3.58, 2.68, 0.45, -4.02, -6.21, -4.43, -3.58, -4.02, -5.81, -5.36, -1.79, 0.95, 3.45, 8.0, 11.21, 11.66, 9.26, 7.89, 7.92, 9.26, 10.7, 11.6, 12.07, 4.75, 4.75, 4.45, 4.45, 4.45, 4.45, 4.74, 4.43, 4.43, 4.11, 4.07, 3.43, 2.12, 1.7, 1.7, 1.79, 2.12, 2.54, 1.58, 2.6, 4.24, 4.24, 3.39, 1.79, 1.79, 4.02, 4.02, 4.38, 3.13, 2.68, 0.89, 0.45, 2.12, 5.09, 7.21, 5.81, 5.81, 7.4, 6.39, 5.21, 5.21, 6.06, 5.6, 5.16, 5.81, 5.81, 6.07, 6.0, 5.69, 5.43, 4.74, 5.43, 4.65, 5.0, 6.01, 7.69, 8.63, 9.2, 10.15, 10.01, 8.0, 6.44, 5.77, 6.06, 7.69, 8.88, 9.6, 10.15, 11.44, 13.89, 16.71, 18.88, 18.13, 13.05, 2.68, 0.0, 0.0, -1.34, -3.58, -6.71, -4.47, -3.07, -3.97, -6.21, -5.31, -1.24, 2.5, 7.2, 9.2, 9.49, 8.63, 7.89, 8.19, 7.89, 7.71, 9.26, 10.62, 11.08, 4.1, 4.12, 4.45, 4.45, 4.45, 4.74, 4.43, 4.43, 4.12, 4.11, 3.78, 3.35, 2.12, 1.7, 1.7, 1.49, 1.6, 2.98, 2.23, 2.21, 3.58, 4.15, 4.24, 3.82, 3.72, 3.72, 5.2, 4.34, 3.58, 2.24, 0.45, -0.6, 0.0, 3.48, 5.72, 6.07, 5.43, 7.2, 6.44, 3.07, 1.84, 2.6, 3.51, 5.81, 7.15, 7.11, 6.79, 6.0, 5.46, 4.81, 4.46, 4.43, 4.74, 5.06, 6.44, 7.67, 8.14, 8.55, 10.01, 10.43, 7.89, 5.09, 4.74, 6.06, 7.06, 8.67, 9.2, 8.95, 9.2, 12.29, 15.61, 17.47, 19.08, 16.96, 3.97, -1.86, -2.63, -2.68, -3.13, -6.07, -4.4, -3.45, -3.82, -5.64, -4.09, -0.59, 4.65, 8.88, 9.2, 7.2, 6.79, 9.33, 9.74, 5.6, 3.32, 5.64, 9.58, 10.93, 4.1, 4.12, 4.12, 4.12, 4.12, 4.12, 4.12, 4.12, 4.11, 4.07, 3.43, 3.35, 1.86, 1.49, 2.21, 1.26, 1.58, 2.23, 1.86, 1.58, 2.6, 3.2, 3.6, 4.22, 4.8, 3.79, 3.79, 2.6, 2.23, 0.63, 0.0, -0.6, 0.0, 3.22, 5.72, 5.72, 5.72, 7.4, 4.57, 0.95, 0.0, 0.57, 2.6, 5.73, 6.71, 5.44, 6.07, 6.07, 5.46, 5.59, 5.59, 3.79, 4.81, 5.46, 6.07, 7.35, 7.47, 7.71, 9.11, 9.33, 6.4, 3.79, 4.11, 5.46, 6.64, 8.24, 9.2, 8.4, 8.63, 11.84, 14.44, 15.34, 16.6, 19.26, 11.06, 0.0, -3.07, -2.4, -1.79, -1.88, -4.46, -3.79, -3.72, -4.46, -2.98, 0.0, 3.91, 7.02, 7.67, 7.07, 7.95, 10.04, 7.07, 1.86, 1.7, 3.82, 9.33, 10.75, 4.1, 4.12, 4.12, 4.12, 3.84, 4.12, 4.12, 4.11, 4.07, 3.48, 3.43, 3.43, 2.23, 1.86, 3.35, 1.24, 1.9, 1.9, 1.86, 2.0, 1.6, 2.0, 1.6, 2.4, 2.8, 2.6, 2.21, 1.49, 0.0, 0.0, 0.0, 0.0, 0.98, 4.47, 6.35, 5.69, 5.0, 6.08, 4.0, 0.89, 0.45, 0.0, 1.58, 1.86, 1.79, 1.49, 3.07, 5.46, 5.09, 5.37, 3.49, 4.46, 5.09, 6.0, 6.28, 6.79, 6.98, 7.45, 8.36, 7.45, 4.8, 2.86, 2.86, 4.84, 6.0, 8.0, 10.43, 9.58, 8.49, 10.28, 12.94, 14.29, 15.65, 17.88, 13.77, 3.07, -0.0, -0.0, 0.0, -0.71, -2.07, -4.36, -4.11, -3.38, -2.04, 0.0, 2.82, 5.21, 7.02, 8.3, 9.21, 6.64, 1.24, 0.45, 1.49, 4.93, 9.08, 10.15, 3.85, 4.12, 4.12, 4.12, 3.84, 4.12, 3.83, 3.79, 3.48, 3.48, 3.48, 3.48, 1.49, 1.9, 1.9, 1.58, 1.49, 2.53, 2.6, 2.4, 2.4, 2.68, 2.54, 1.86, 2.5, 4.0, 2.8, 1.26, 0.0, 0.85, 2.32, 2.09, 2.21, 3.99, 4.29, 4.43, 4.19, 4.19, 2.21, 0.45, -0.45, 0.45, 0.45, -0.45, -0.95, -0.0, 1.27, 4.65, 4.81, 5.09, 6.52, 4.81, 5.46, 6.0, 6.28, 6.55, 7.11, 7.56, 7.11, 5.31, 3.2, 2.21, 2.53, 3.84, 5.43, 8.0, 10.68, 10.75, 8.05, 8.91, 11.62, 13.86, 15.63, 14.75, 11.99, 6.07, 2.91, 2.6, 1.34, 0.0, -1.24, -4.07, -3.32, -2.54, -1.32, 0.0, 2.12, 4.5, 6.44, 7.55, 5.0, 0.0, -2.4, 0.0, 2.79, 7.03, 8.88, 7.67, 3.85, 3.85, 4.12, 4.12, 3.84, 3.83, 3.79, 3.79, 3.73, 3.73, 4.07, 4.07, 3.79, 3.49, 1.9, 1.49, 1.74, 2.68, 1.98, 2.48, 2.48, 3.72, 4.09, 1.9, 2.84, 4.29, 2.21, 1.49, 1.4, 3.45, 4.22, 2.12, 0.96, 1.6, 1.4, 2.53, 3.93, 2.53, 1.58, 0.45, 0.0, -0.45, -0.45, -0.89, -0.95, -0.0, 0.85, 2.84, 4.84, 4.81, 5.43, 6.06, 6.44, 6.07, 6.28, 6.79, 7.11, 6.71, 5.36, 3.13, 2.21, 2.3, 3.68, 4.01, 5.37, 7.32, 10.4, 10.79, 7.94, 8.01, 10.62, 13.34, 13.79, 12.52, 9.81, 5.77, 3.13, 2.8, 1.24, -0.57, -1.49, -1.9, -2.66, -1.98, -0.71, 0.67, 2.63, 4.12, 5.04, 2.73, 0.0, -2.4, -2.15, 0.0, 3.9, 8.32, 8.32, 3.6, 3.45, 3.45, 3.72, 3.47, 3.49, 3.49, 3.79, 4.07, 4.07, 4.07, 4.07, 4.07, 4.41, 4.41, 2.21, 1.9, 1.9, 3.48, 3.49, 4.07, 2.5, 2.5, 2.5, 1.88, 3.76, 1.98, 2.95, 3.22, 3.22, 4.19, 3.48, 2.15, 1.24, 1.2, 1.24, 2.53, 3.22, 2.4, 1.79, 1.7, 1.2, 0.45, 0.45, 0.89, -0.0, -0.0, 0.71, 1.49, 2.21, 3.07, 4.36, 6.01, 6.68, 7.06, 6.7, 7.6, 7.89, 6.21, 2.68, 1.26, 0.7, 2.26, 3.09, 3.91, 4.71, 6.97, 9.9, 10.53, 9.08, 8.49, 10.18, 11.42, 10.19, 7.12, 4.02, 2.63, 1.49, 0.61, 0.0, -2.15, -2.68, -1.9, -0.53, -0.63, 0.0, 0.67, 2.0, 2.2, 1.4, 0.0, -1.79, -1.86, -1.13, 0.0, 3.8, 7.59, 5.46, 2.12, 3.45, 3.45, 3.47, 3.49, 3.49, 3.49, 4.07, 4.07, 4.07, 4.07, 4.07, 4.07, 4.65, 4.65, 4.65, 4.93, 4.93, 4.84, 5.21, 5.47, 5.31, 5.4, 5.31, 4.29, 3.79, 4.11, 4.74, 5.35, 3.79, 3.58, 3.2, 3.07, 2.68, 2.63, 3.07, 3.07, 3.32, 2.24, 1.86, 2.23, 2.15, 2.4, 1.86, 3.13, -0.0, -0.0, 0.71, 2.21, 2.21, 1.98, 3.35, 4.65, 6.01, 7.02, 7.02, 7.33, 8.68, 7.6, 2.68, -0.0, -0.0, 2.23, 3.15, 2.23, 3.07, 5.38, 9.39, 11.44, 11.53, 10.68, 10.52, 9.83, 5.77, 2.12, 0.0, -0.0, 0.0, -0.53, -2.0, -4.43, -3.84, -2.53, -0.61, 0.0, 0.0, 0.66, 1.27, 1.0, 0.45, -0.0, 0.0, -0.63, -1.16, 0.0, 2.35, 3.72, 1.79, 0.57, 3.45, 3.47, 3.08, 3.49, 3.49, 3.79, 4.07, 4.07, 4.41, 4.41, 4.65, 4.65, 4.65, 5.21, 5.21, 5.37, 6.0, 6.1, 6.1, 6.3, 6.3, 6.51, 6.47, 5.99, 5.4, 5.81, 6.0, 6.6, 7.01, 7.09, 5.16, 4.47, 4.41, 4.92, 4.02, 3.13, 2.68, 2.4, 1.86, 1.9, 2.5, 3.32, 3.32, 2.17, 0.45, 0.0, 1.79, 2.8, 3.82, 3.35, 3.22, 4.4, 5.44, 5.44, 6.36, 6.4, 7.28, 9.67, 4.41, -0.54, -1.58, 1.6, 2.12, 0.74, 0.76, 3.11, 7.25, 10.43, 11.76, 12.49, 13.51, 12.47, 6.07, 0.0, -2.17, -2.23, -1.79, -1.86, -1.86, -3.83, -4.75, -2.79, -1.27, 0.0, 0.0, 1.4, 1.9, 1.34, 1.2, 1.7, 1.79, 0.89, 0.0, 0.0, 0.0, 0.6, -0.0, -0.0, 3.47, 3.08, 2.84, 3.49, 3.49, 3.79, 4.41, 4.65, 4.65, 4.65, 4.65, 4.84, 5.21, 5.21, 5.75, 5.75, 6.1, 6.51, 6.79, 6.79, 7.4, 7.4, 7.4, 7.4, 7.26, 7.26, 7.09, 7.51, 8.0, 8.64, 8.64, 6.66, 7.6, 4.47, 4.02, 3.07, 3.07, 2.4, 2.4, 2.4, 3.07, 3.13, 3.13, 4.92, 2.24, 0.0, 0.0, 0.89, 0.89, 0.89, 1.34, 3.39, 3.6, 2.54, 2.0, 1.79, 1.79, 9.6, 11.12, 0.65, -2.9, -0.0, 1.05, -0.0, -0.0, 0.77, 4.31, 6.44, 9.48, 10.48, 14.08, 16.34, 11.21, 0.89, -2.0, -0.71, -1.6, -2.68, -2.6, -2.6, -2.86, -3.07, -1.27, -1.41, 0.0, 0.54, 1.2, 1.2, 0.95, 1.7, 2.17, 2.17, 1.34, 0.45, 0.0, 0.45, -0.0, -0.0, 2.82, 3.08, 2.84, 3.49, 3.49, 3.79, 4.41, 4.65, 4.65, 4.65, 4.84, 5.21, 5.37, 5.75, 6.0, 6.1, 6.1, 6.72, 6.79, 7.21, 7.4, 7.4, 7.84, 7.87, 7.74, 8.17, 8.0, 8.42, 8.48, 8.96, 9.54, 8.64, 7.98, 6.26, 5.81, 5.36, 5.26, 2.4, 4.34, 2.6, 2.68, 5.81, 5.26, 4.02, 2.24, 1.79, 1.26, 1.26, 0.0, 0.0, 0.8, 2.23, 2.6, 1.58, 0.95, 0.0, 0.0, 7.6, 11.62, 2.68, -1.55, -1.14, -0.0, -0.0, -0.0, -0.0, 1.27, 2.95, 4.47, 7.27, 11.18, 17.9, 16.25, 3.13, -0.65, 0.79, 1.2, -1.2, -3.2, -2.8, -2.4, -2.5, -1.88, -2.53, -3.14, -1.61, -0.45, -0.0, -0.0, 1.26, 2.4, 3.07, 2.6, 1.7, 1.26, 0.6, 0.57, 0.57, 2.82, 3.08, 2.84, 3.49, 3.49, 4.11, 4.37, 4.65, 4.65, 5.21, 5.21, 5.37, 5.75, 6.0, 6.1, 6.1, 6.1, 6.72, 6.79, 6.79, 7.26, 7.26, 7.87, 7.87, 8.17, 8.21, 8.48, 8.91, 8.96, 9.39, 9.39, 9.54, 8.33, 7.52, 5.81, 3.13, 3.07, 2.91, 5.26, 5.36, 3.13, 3.13, 4.92, 3.58, 2.68, 2.24, 1.58, 1.58, 1.58, 1.58, 2.4, 2.0, 1.6, 0.95, 0.0, 0.0, 0.76, 5.06, 6.26, 2.68, -0.0, -0.0, -0.0, -0.0, -0.0, 0.45, -0.45, -0.0, 1.98, 7.47, 12.14, 18.78, 16.92, 3.13, -1.16, 1.52, 5.49, 3.84, 0.45, -0.63, -0.89, -1.2, -1.86, -1.9, -2.23, -2.24, -2.68, -1.24, -0.0, 0.71, 2.5, 4.52, 3.74, 3.07, 4.0, 2.15, 1.24, 1.24, 3.22, 3.49, 3.49, 3.49, 4.11, 4.11, 4.71, 4.71, 5.21, 5.21, 5.21, 5.75, 5.75, 6.1, 6.1, 6.1, 6.72, 6.79, 6.79, 7.21, 7.26, 7.26, 7.69, 7.74, 8.17, 8.64, 8.91, 8.96, 9.39, 9.39, 9.39, 9.43, 8.96, 8.24, 3.53, 3.13, 3.13, 4.47, 4.47, 5.81, 5.7, 3.07, 4.47, 2.24, 3.39, 2.8, 2.4, 2.68, 2.68, 2.68, 2.68, 2.68, 2.24, 2.24, 1.79, 2.8, 3.48, 4.34, 3.35, 2.4, 2.2, 1.6, 1.58, 1.79, 1.34, 0.0, -1.34, -1.79, 1.26, 10.68, 18.3, 18.51, 11.09, -0.0, -1.41, 1.52, 6.33, 10.18, 10.28, 7.6, 6.0, 4.52, 3.58, 3.07, 2.23, 0.63, -2.4, -0.0, 0.65, 2.53, 5.31, 5.6, 4.0, 3.6, 4.0, 3.45, 2.5, 2.5, 3.76, 3.49, 3.49, 4.11, 4.11, 4.71, 4.71, 4.94, 4.94, 5.58, 5.75, 5.75, 5.75, 6.1, 6.1, 6.1, 6.72, 6.79, 6.79, 7.21, 7.09, 7.51, 7.51, 7.74, 8.17, 8.64, 8.48, 8.91, 8.96, 9.39, 9.39, 9.39, 9.39, 9.07, 7.74, 5.16, 3.82, 5.7, 5.7, 5.26, 3.47, 3.04, 3.04, 2.54, 3.82, 2.8, 2.68, 2.68, 3.13, 3.58, 3.39, 3.39, 2.97, 3.39, 3.58, 4.02, 4.47, 4.34, 4.4, 3.48, 4.09, 3.72, 3.39, 2.68, 2.68, 0.89, 0.0, 0.0, 2.32, 11.77, 19.81, 16.33, 4.43, -0.0, -0.0, 2.23, 7.44, 11.9, 14.07, 13.43, 12.64, 13.23, 13.49, 9.36, 4.43, 1.79, 1.2, 0.7, 1.33, 2.51, 5.09, 7.03, 5.86, 4.52, 4.46, 4.46, 4.73, 4.73, 4.12, 4.12, 3.83, 4.12, 4.43, 4.71, 4.71, 5.29, 5.29, 5.49, 5.75, 5.75, 5.75, 5.89, 6.1, 6.4, 6.1, 6.72, 6.79, 7.21, 7.09, 7.51, 7.01, 5.86, 5.86, 6.79, 7.01, 6.79, 7.21, 8.48, 8.96, 9.39, 9.39, 9.39, 8.96, 8.48, 8.42, 7.81, 6.28, 5.4, 3.74, 3.32, 2.6, 4.8, 3.82, 3.13, 3.13, 3.13, 3.58, 3.58, 3.58, 3.39, 3.82, 3.82, 4.34, 4.77, 4.77, 4.77, 4.8, 4.8, 4.4, 4.77, 4.34, 2.24, 1.79, 2.97, 2.6, 2.79, 5.28, 11.57, 16.41, 16.07, 12.37, 8.32, 6.68, 6.7, 8.82, 11.84, 13.49, 13.29, 14.87, 15.47, 15.12, 12.96, 8.94, 3.58, 1.9, 2.23, 2.41, 2.53, 3.84, 7.89, 7.71, 4.52, 4.46, 5.43, 4.66, 4.66, 4.74, 4.43, 4.43, 4.43, 4.74, 4.74, 5.29, 5.29, 5.29, 5.49, 5.75, 5.75, 6.28, 6.28, 6.28, 6.1, 6.1, 6.1, 4.93, 4.93, 5.34, 7.01, 6.8, 6.0, 5.43, 5.34, 5.34, 7.51, 8.0, 8.42, 8.72, 8.79, 8.96, 8.96, 8.96, 8.96, 8.79, 8.96, 8.48, 8.0, 7.69, 7.21, 6.47, 5.99, 5.24, 4.02, 3.58, 3.58, 4.02, 3.58, 3.58, 3.58, 4.02, 4.34, 2.6, 2.91, 5.4, 2.8, 2.6, 5.2, 4.77, 4.77, 4.77, 4.47, 2.24, 2.6, 2.8, 5.43, 7.67, 10.93, 13.86, 17.47, 19.08, 17.59, 14.67, 12.05, 10.93, 10.52, 11.15, 12.96, 15.2, 16.09, 15.2, 12.5, 9.36, 4.73, 3.14, 3.48, 2.53, 2.68, 3.53, 7.45, 7.92, 3.82, 3.6, 4.93, 4.93, 4.93, 4.74, 4.74, 4.74, 4.74, 5.01, 5.01, 5.01, 5.29, 5.49, 5.86, 6.13, 6.28, 6.28, 6.28, 6.28, 6.28, 6.28, 6.28, 6.28, 5.75, 5.34, 6.51, 6.8, 7.31, 7.71, 7.31, 7.51, 7.71, 7.81, 8.22, 8.3, 8.72, 8.72, 8.91, 8.91, 8.96, 8.96, 8.96, 8.96, 9.07, 8.64, 8.3, 7.84, 7.4, 6.47, 5.26, 4.47, 4.47, 4.47, 4.02, 4.02, 4.02, 4.02, 4.02, 4.77, 3.07, 3.32, 3.45, 5.4, 4.77, 4.77, 4.77, 4.92, 4.92, 2.24, 2.6, 3.04, 5.31, 7.6, 10.16, 13.53, 17.73, 20.0, 16.99, 13.29, 11.83, 9.84, 8.27, 8.68, 11.21, 14.11, 15.18, 14.3, 11.99, 9.72, 5.86, 4.12, 5.72, 8.4, 3.97, 3.58, 4.47, 5.77, 3.97, 2.91, 3.39, 4.3, 4.3, 4.75, 5.35, 5.35, 5.35, 5.35, 5.35, 5.35, 5.86, 5.86, 5.86, 6.03, 6.03, 6.28, 6.28, 6.28, 6.28, 6.28, 6.8, 7.2, 7.31, 7.01, 7.01, 7.2, 7.71, 7.81, 7.81, 8.22, 8.22, 8.22, 8.22, 8.3, 8.3, 8.72, 8.72, 8.72, 8.91, 8.91, 8.91, 8.91, 8.48, 8.64, 8.21, 8.3, 7.84, 7.4, 6.51, 5.7, 4.77, 4.92, 4.47, 4.47, 4.02, 4.02, 4.47, 4.47, 4.77, 3.32, 4.0, 6.36, 5.26, 2.6, 3.07, 3.13, 3.13, 2.68, 2.68, 2.68, 2.68, 5.31, 9.21, 10.55, 14.7, 19.19, 11.52, 1.52, 4.87, 6.44, 6.04, 6.21, 7.8, 10.87, 12.18, 12.07, 11.08, 9.58, 7.06, 5.09, 6.07, 9.26, 7.48, 3.53, 3.07, 3.58, 3.09, 3.07, 3.39, 3.97, 3.97, 5.06, 5.06, 5.06, 5.35, 5.59, 5.59, 5.59, 5.59, 5.86, 6.03, 6.41, 6.41, 6.41, 6.41, 6.67, 6.67, 6.67, 6.8, 7.2, 7.31, 7.51, 7.51, 7.31, 7.71, 7.81, 8.22, 8.22, 8.22, 8.3, 8.3, 8.3, 8.3, 8.3, 8.3, 8.3, 8.48, 8.48, 8.48, 8.48, 8.48, 8.64, 8.17, 8.17, 7.87, 7.84, 7.4, 6.61, 5.26, 4.82, 4.92, 4.47, 4.47, 4.47, 4.47, 4.47, 4.47, 3.04, 3.74, 4.98, 3.07, 2.68, 3.13, 4.02, 3.58, 3.13, 2.68, 2.68, 2.24, 2.24, 5.2, 7.07, 11.5, 12.62, -3.82, -6.4, 0.0, 2.12, 3.44, 4.23, 5.4, 7.09, 8.32, 8.63, 8.49, 8.36, 7.89, 6.54, 6.36, 9.11, 9.33, 3.58, 1.7, 2.17, 2.68, 2.63, 3.53, 4.47, 4.47, 5.06, 5.06, 5.06, 5.35, 5.59, 5.93, 5.93, 5.93, 5.93, 6.15, 6.41, 6.41, 6.41, 6.41, 6.41, 6.67, 6.8, 6.8, 7.2, 7.31, 7.31, 7.71, 7.81, 7.81, 7.81, 8.22, 8.22, 8.22, 8.3, 8.3, 8.3, 8.3, 8.3, 8.22, 8.22, 8.22, 8.42, 8.42, 8.42, 8.0, 8.17, 8.17, 8.17, 7.74, 7.69, 7.26, 7.31, 6.17, 5.7, 5.26, 5.26, 4.92, 4.47, 4.47, 4.02, 4.02, 2.24, 2.6, 6.58, 4.38, 3.13, 3.13, 3.13, 3.13, 2.68, 2.68, 2.68, 3.58, 0.8, 2.68, 4.92, 19.22, 20.43, 4.73, -2.68, -1.4, 0.0, 0.0, 2.17, 2.7, 4.05, 5.13, 5.72, 6.36, 6.71, 6.66, 7.12, 6.22, 6.55, 7.67, 4.4, 2.24, 1.7, 1.7, 2.63, 3.53, 4.47, 4.47, 5.37, 5.37, 5.37, 5.65, 5.93, 5.93, 5.93, 6.15, 6.15, 6.15, 6.15, 6.79, 6.56, 6.56, 6.56, 6.56, 6.56, 6.95, 7.2, 7.2, 7.31, 7.71, 7.81, 8.22, 8.22, 8.22, 8.22, 8.22, 8.22, 8.3, 8.3, 8.3, 8.22, 8.22, 8.22, 8.22, 7.81, 8.0, 8.0, 8.0, 8.0, 8.17, 7.74, 7.69, 7.69, 7.69, 7.26, 6.94, 6.47, 6.47, 5.99, 6.14, 4.77, 4.47, 4.02, 4.02, 3.58, 2.24, 4.92, 6.26, 4.47, 3.13, 2.24, 2.24, 2.24, 2.24, 1.79, 1.7, 1.2, 5.75, 9.08, 14.4, 19.99, 17.96, 12.14, 2.68, -0.57, 0.0, 0.0, 1.4, 2.01, 2.69, 3.97, 4.41, 4.93, 5.77, 5.81, 4.47, 3.07, 4.02, 7.52, 6.32, 3.13, 1.86, 1.58, 2.68, 3.39, 3.39, 5.37, 5.37, 5.65, 5.65, 5.65, 5.93, 5.93, 6.15, 6.15, 6.51, 6.51, 6.51, 6.95, 6.95, 6.95, 6.95, 6.95, 6.95, 6.95, 6.95, 7.2, 7.71, 7.81, 8.22, 8.22, 8.22, 8.22, 8.22, 8.22, 8.22, 8.22, 8.22, 8.22, 8.22, 8.22, 8.22, 7.81, 8.0, 8.0, 8.0, 8.0, 7.58, 7.51, 7.51, 7.51, 7.51, 7.69, 7.69, 7.69, 7.26, 7.21, 6.47, 6.61, 5.26, 4.34, 3.9, 3.82, 3.82, 3.9, 4.47, 5.81, 3.13, 2.68, 1.79, 1.79, 1.34, 1.2, 1.26, 5.36, 7.21, 9.49, 12.79, 14.73, 17.68, 18.98, 14.83, 3.13, 0.0, 0.0, 0.0, 0.74, 1.36, 2.0, 2.6, 3.16, 4.24, 4.47, 3.53, 2.53, 1.94, 5.13, 9.83, 8.11, 3.13, 1.86, 1.86, 2.4, 2.4, 5.65, 5.65, 5.65, 5.65, 5.65, 5.65, 6.15, 6.51, 6.51, 6.51, 6.51, 6.51, 6.95, 6.95, 6.95, 6.95, 6.95, 6.95, 6.95, 6.95, 7.2, 7.31, 7.71, 7.81, 8.22, 8.22, 8.22, 8.22, 8.22, 8.22, 8.22, 8.22, 8.22, 8.22, 7.81, 7.81, 8.0, 8.0, 8.0, 8.0, 7.93, 7.51, 7.51, 7.51, 7.51, 7.51, 7.51, 7.69, 7.69, 7.69, 7.26, 7.26, 6.94, 6.04, 3.51, 2.6, 5.2, 4.77, 2.6, 2.6, 4.92, 5.36, 4.02, 2.68, 3.58, 1.34, 1.6, 3.95, 6.26, 8.46, 10.6, 11.96, 12.96, 13.32, 14.83, 20.15, 14.4, 1.33, -0.7, 0.0, 0.0, 0.74, 1.4, 1.32, 1.23, 2.53, 2.68, 2.53, 2.2, 2.2, 3.32, 8.24, 12.16, 8.55, 3.53, 2.68, 2.68, 2.68, 5.98, 5.98, 5.98, 5.98, 5.65, 5.65, 6.23, 6.51, 6.51, 6.51, 6.51, 6.7, 6.7, 6.95, 6.95, 6.95, 6.95, 6.95, 6.95, 6.95, 7.2, 7.31, 7.71, 7.81, 8.22, 8.22, 8.22, 8.22, 8.22, 8.22, 8.22, 8.22, 8.22, 7.81, 7.81, 8.0, 8.0, 8.0, 8.0, 8.0, 7.93, 7.51, 7.51, 7.51, 7.26, 7.69, 7.51, 7.51, 7.51, 7.69, 7.69, 7.26, 7.26, 7.21, 6.72, 5.16, 5.81, 5.2, 2.54, 2.6, 3.07, 6.21, 5.31, 3.07, 2.24, 3.13, 2.23, 2.6, 5.81, 8.49, 10.73, 11.98, 11.84, 10.62, 11.18, 17.42, 19.97, 5.16, -0.53, 0.0, 0.59, 0.58, 0.57, 0.0, 0.0, 0.0, 0.42, 1.27, 3.9, 3.64, 3.72, 6.7, 13.1, 12.9, 9.6, 5.94, 4.3, 4.3, 5.98, 5.98, 5.98, 5.98, 5.98, 5.98, 6.23, 6.23, 6.51, 6.51, 6.51, 6.7, 6.7, 6.7, 6.95, 6.95, 6.95, 6.95, 6.95, 6.95, 7.2, 7.31, 7.71, 7.71, 7.81, 7.81, 7.81, 8.22, 8.22, 8.22, 8.22, 8.22, 8.22, 7.81, 8.0, 8.0, 8.0, 8.0, 8.0, 8.0, 7.51, 7.51, 7.09, 6.79, 6.79, 7.21, 7.69, 7.51, 7.51, 7.51, 7.51, 7.51, 7.51, 7.26, 7.09, 6.51, 6.79, 5.81, 3.2, 2.8, 3.32, 6.51, 5.16, 3.07, 2.24, 2.23, 2.86, 3.07, 4.02, 7.56, 11.15, 13.84, 13.21, 10.23, 10.28, 14.46, 18.52, 13.39, 2.91, 0.57, 0.57, 1.11, 1.11, 1.33, 0.57, 1.2, 1.4, 2.73, 5.43, 5.43, 4.81, 6.44, 9.05, 13.45, 12.5, 10.53, 8.25, 8.25, 5.98, 5.98, 5.98, 5.98, 5.98, 5.98, 6.23, 6.23, 6.23, 6.51, 6.51, 6.7, 6.7, 6.7, 6.95, 6.95, 6.95, 6.95, 6.95, 6.95, 7.08, 7.08, 7.48, 7.48, 7.48, 7.81, 7.81, 7.81, 7.81, 8.22, 8.22, 8.22, 7.81, 7.81, 8.0, 8.0, 8.0, 8.0, 8.0, 8.0, 7.51, 7.51, 7.09, 7.01, 6.79, 6.79, 6.28, 6.79, 7.01, 7.51, 7.51, 7.51, 7.51, 7.51, 7.51, 7.09, 7.01, 6.1, 4.8, 2.91, 3.74, 5.34, 3.74, 2.6, 1.34, 1.6, 4.15, 7.5, 7.15, 7.71, 10.02, 13.39, 15.65, 12.58, 9.23, 10.12, 13.99, 15.34, 12.87, 6.55, 2.4, 2.6, 3.87, 5.31, 6.0, 4.37, 5.09, 6.32, 6.9, 6.32, 5.72, 6.44, 8.8, 12.39, 12.79, 12.39, 10.53, 10.53, 5.69, 5.69, 5.98, 5.98, 5.98, 6.23, 6.23, 6.23, 6.23, 6.51, 6.51, 6.51, 6.51, 6.7, 6.7, 6.95, 6.95, 6.95, 6.95, 6.95, 7.08, 7.48, 7.48, 7.48, 7.48, 7.48, 7.81, 7.71, 7.81, 7.81, 7.81, 7.81, 7.81, 7.81, 8.0, 8.0, 8.0, 8.0, 8.0, 8.0, 7.51, 7.51, 7.51, 7.51, 7.01, 6.79, 6.28, 6.3, 6.6, 7.09, 7.51, 7.51, 7.51, 7.51, 7.51, 7.51, 7.51, 7.31, 7.01, 4.93, 4.8, 4.4, 2.91, 1.6, 0.45, 0.45, 2.12, 7.15, 9.83, 8.67, 7.89, 10.16, 14.73, 16.52, 10.52, 7.08, 9.27, 11.75, 13.96, 14.11, 9.15, 4.02, 5.86, 6.87, 8.55, 9.48, 9.48, 8.0, 7.73, 6.25, 5.09, 5.69, 7.28, 9.86, 11.99, 12.13, 11.73, 11.73, 5.69, 5.69, 5.69, 5.98, 6.23, 6.23, 6.23, 6.23, 6.23, 6.23, 6.51, 6.51, 6.51, 6.51, 6.51, 6.95, 6.95, 6.95, 6.95, 6.95, 7.34, 7.48, 7.48, 7.48, 7.48, 7.48, 7.48, 7.71, 6.94, 7.31, 7.71, 7.81, 7.81, 7.81, 7.93, 7.93, 7.93, 8.0, 8.0, 8.0, 7.51, 7.51, 7.51, 7.51, 7.51, 7.51, 7.26, 7.21, 7.01, 7.01, 7.09, 7.09, 7.51, 7.51, 7.51, 7.51, 7.31, 7.31, 7.71, 7.71, 5.43, 4.24, 2.17, 1.7, 0.45, 0.0, 0.57, 5.2, 9.39, 10.28, 7.11, 7.11, 11.18, 17.3, 14.3, 5.72, 3.0, 5.69, 10.23, 13.4, 11.89, 4.88, 2.51, 4.47, 6.79, 9.2, 10.91, 10.6, 8.19, 5.6, 3.48, 4.12, 5.86, 8.93, 10.65, 11.06, 11.57, 11.57, 5.69, 5.69, 5.69, 5.98, 5.98, 5.98, 6.23, 6.23, 6.23, 6.23, 6.23, 6.51, 6.15, 6.15, 6.51, 6.51, 6.95, 6.95, 6.95, 6.95, 7.34, 7.48, 7.48, 7.48, 7.48, 7.48, 7.48, 7.48, 7.31, 6.4, 6.8, 7.31, 7.71, 7.51, 7.51, 7.51, 7.51, 7.93, 8.0, 7.51, 7.51, 7.51, 7.51, 7.51, 7.51, 7.51, 7.51, 7.51, 7.51, 7.51, 7.51, 7.51, 7.51, 7.51, 7.31, 7.31, 7.71, 7.71, 7.71, 8.0, 7.71, 2.4, 4.24, 1.7, 1.7, 0.95, 1.74, 1.9, 7.74, 9.83, 7.6, 7.15, 9.7, 16.47, 19.67, 7.6, 0.0, 1.55, 6.35, 9.34, 7.01, 2.21, -0.0, 0.59, 4.07, 7.26, 9.68, 10.14, 7.45, 3.45, 2.41, 2.79, 5.09, 7.73, 9.68, 11.45, 10.88, 10.88, 5.69, 5.69, 5.69, 5.98, 5.98, 5.98, 5.98, 5.98, 6.23, 6.23, 5.65, 5.93, 6.15, 6.15, 6.15, 6.51, 6.51, 6.7, 6.7, 6.95, 7.34, 7.48, 7.48, 7.48, 7.48, 7.48, 7.48, 7.48, 7.48, 7.31, 7.31, 7.31, 7.31, 7.51, 7.51, 7.51, 7.51, 7.51, 7.51, 7.51, 7.51, 7.09, 7.09, 7.51, 7.51, 7.51, 7.51, 7.51, 7.51, 7.51, 7.51, 7.51, 7.51, 7.31, 7.31, 7.31, 7.71, 7.71, 7.71, 7.71, 6.99, 4.98, 4.4, 4.4, 2.4, 3.2, 3.83, 4.19, 5.75, 8.41, 8.94, 9.83, 11.4, 14.87, 17.42, 11.96, 2.24, 1.2, 4.07, 4.11, 1.79, -0.0, -0.0, -0.0, 1.24, 4.43, 7.13, 7.97, 4.73, 3.14, 2.23, 2.15, 4.09, 6.13, 7.98, 10.6, 10.6, 10.6, 5.69, 5.69, 5.69, 5.98, 5.98, 5.98, 5.98, 5.98, 5.98, 5.65, 5.93, 5.93, 5.93, 6.15, 6.15, 6.15, 6.51, 6.7, 6.7, 6.7, 7.34, 7.34, 7.34, 7.48, 7.48, 7.48, 7.48, 7.48, 7.48, 7.71, 7.31, 7.31, 7.31, 7.51, 7.51, 7.51, 7.51, 7.51, 7.51, 7.51, 7.09, 7.09, 7.09, 7.51, 7.51, 7.51, 7.51, 7.51, 7.51, 7.51, 7.51, 7.51, 7.31, 7.31, 7.31, 7.31, 7.31, 7.31, 7.31, 7.31, 7.01, 6.36, 5.4, 5.4, 5.4, 5.4, 4.57, 5.2, 6.02, 7.55, 8.94, 10.73, 12.52, 13.77, 13.39, 10.62, 8.19, 6.26, 5.75, 2.41, 0.45, 0.54, 0.65, 0.54, 0.57, 2.63, 4.02, 3.53, 3.07, 2.79, 2.53, 2.21, 2.86, 4.52, 5.44, 6.85, 9.68, 9.68, 5.69, 5.69, 5.69, 5.98, 5.98, 5.98, 5.98, 5.65, 5.65, 5.93, 5.93, 5.93, 5.93, 5.93, 6.15, 6.15, 6.51, 6.7, 6.7, 6.95, 6.95, 6.95, 6.95, 7.34, 7.48, 7.48, 7.48, 7.48, 7.48, 7.71, 7.31, 7.31, 7.31, 7.31, 7.51, 7.51, 7.51, 7.51, 7.51, 7.09, 7.01, 7.01, 7.01, 7.26, 7.51, 7.51, 7.51, 7.51, 7.51, 7.51, 7.51, 7.71, 7.71, 7.71, 7.31, 7.31, 7.31, 7.31, 7.31, 7.2, 7.31, 6.6, 6.36, 2.91, 3.04, 5.26, 2.6, 2.6, 5.75, 6.65, 8.94, 9.81, 13.82, 14.73, 12.07, 7.15, 8.63, 13.21, 13.41, 6.85, 1.2, 0.63, 0.6, 1.26, 1.26, 1.7, 1.79, 2.17, 2.8, 2.68, 3.07, 2.68, 2.8, 3.74, 5.16, 6.36, 8.06, 8.06, 5.37, 5.37, 5.98, 5.98, 5.98, 5.65, 5.65, 5.65, 5.93, 5.93, 5.93, 5.93, 5.93, 5.93, 6.15, 6.15, 6.15, 6.79, 6.95, 6.95, 6.95, 6.95, 6.95, 6.95, 6.95, 6.95, 7.08, 7.31, 7.31, 7.31, 7.31, 7.31, 7.31, 7.31, 7.51, 7.51, 7.51, 7.51, 7.09, 7.01, 7.01, 7.01, 6.6, 6.79, 6.79, 7.09, 7.51, 7.51, 7.51, 7.31, 7.31, 7.71, 7.71, 7.71, 7.31, 7.31, 7.31, 7.2, 7.2, 7.2, 7.2, 7.01, 6.79, 3.07, 3.07, 4.82, 2.68, 3.13, 4.85, 6.65, 8.05, 9.81, 13.23, 15.49, 12.52, 6.98, 6.55, 13.41, 17.88, 12.5, 3.51, 0.45, 0.45, 0.89, 1.2, 1.79, 1.79, 2.12, 2.6, 2.91, 2.91, 2.91, 2.91, 3.51, 3.97, 5.32, 7.12, 7.76, 5.65, 5.65, 5.65, 5.65, 5.65, 5.65, 5.65, 5.93, 5.93, 5.93, 5.93, 5.93, 5.93, 6.15, 6.15, 6.15, 6.15, 6.79, 6.95, 6.95, 6.95, 6.95, 6.95, 6.95, 6.95, 6.95, 7.2, 7.31, 7.31, 7.31, 7.2, 7.2, 7.31, 7.31, 7.51, 7.51, 7.51, 7.51, 7.01, 7.01, 7.01, 7.01, 6.6, 5.86, 6.79, 7.01, 7.31, 7.31, 7.31, 7.31, 7.31, 7.31, 7.71, 7.71, 7.31, 7.31, 7.2, 7.2, 7.2, 7.2, 6.8, 6.28, 6.79, 3.07, 3.04, 5.7, 6.14, 4.41, 4.85, 6.2, 6.71, 8.49, 12.47, 16.82, 15.91, 7.11, 4.36, 10.23, 14.6, 10.28, 2.24, 0.0, 0.0, 0.0, 0.45, 1.79, 1.79, 1.7, 2.12, 2.4, 2.4, 2.91, 3.32, 3.51, 3.97, 4.92, 6.26, 7.12, 5.37, 5.37, 5.65, 5.65, 5.65, 5.65, 5.59, 5.59, 5.59, 5.59, 5.59, 5.59, 5.93, 5.93, 6.41, 6.41, 6.41, 6.41, 6.41, 6.56, 6.95, 6.95, 6.95, 6.95, 6.8, 6.8, 7.2, 7.2, 7.2, 6.8, 6.8, 7.2, 7.31, 7.31, 7.51, 7.51, 7.51, 7.09, 7.01, 7.01, 7.01, 7.01, 7.01, 6.51, 6.28, 7.01, 7.2, 7.2, 7.2, 6.95, 6.95, 7.08, 7.08, 7.08, 7.08, 7.2, 7.2, 7.2, 7.2, 6.8, 6.8, 6.67, 6.0, 6.36, 6.14, 5.81, 3.07, 3.07, 4.02, 5.36, 6.26, 7.6, 11.18, 13.67, 14.19, 7.89, 3.79, 5.21, 5.05, 1.34, -0.63, -0.6, -0.89, -0.45, 0.0, 1.34, 2.12, 1.86, 1.86, 2.4, 2.4, 2.91, 3.53, 4.41, 4.47, 4.92, 5.81, 6.26, 5.37, 5.37, 5.37, 5.06, 5.06, 5.35, 5.35, 5.59, 5.59, 5.59, 5.59, 5.59, 5.59, 5.86, 5.86, 6.41, 6.41, 6.41, 6.41, 6.41, 6.41, 6.56, 6.56, 6.8, 6.8, 6.8, 6.8, 6.8, 6.8, 6.8, 6.8, 7.31, 7.31, 7.31, 7.31, 7.31, 7.01, 7.01, 7.01, 7.01, 7.01, 7.01, 6.8, 6.8, 6.8, 6.0, 6.8, 6.8, 6.95, 6.95, 6.95, 6.95, 6.95, 6.95, 6.95, 6.95, 6.95, 7.2, 6.8, 6.8, 6.8, 6.28, 6.8, 6.23, 5.81, 5.81, 3.04, 5.26, 2.68, 5.36, 6.71, 8.01, 9.83, 11.12, 12.6, 14.21, 9.26, 2.5, -0.54, -2.12, -2.17, -1.2, -0.89, -0.32, -0.0, 1.6, 2.0, 2.4, 2.4, 2.4, 2.91, 3.53, 3.97, 5.81, 5.81, 5.81, 6.26, 6.26, 5.06, 5.06, 5.06, 5.06, 5.35, 5.35, 5.35, 5.35, 5.59, 5.59, 5.59, 5.59, 5.86, 5.86, 5.86, 6.03, 6.03, 6.41, 6.41, 6.41, 6.41, 6.67, 6.67, 6.67, 6.67, 6.8, 6.8, 6.8, 6.8, 6.8, 7.2, 7.31, 7.31, 7.31, 7.31, 6.8, 7.01, 7.01, 7.01, 7.01, 7.01, 6.8, 6.8, 7.2, 7.31, 7.2, 6.8, 6.8, 6.56, 6.95, 6.95, 6.95, 6.95, 6.95, 6.95, 6.95, 6.95, 6.56, 6.8, 6.8, 6.67, 6.67, 5.75, 6.0, 5.81, 5.4, 5.7, 5.26, 4.38, 5.36, 6.66, 8.01, 9.77, 9.83, 12.02, 15.05, 16.33, 11.66, 3.07, 0.45, 0.0, -0.6, 0.0, 0.0, 0.89, 1.2, 1.7, 1.86, 2.4, 3.07, 3.58, 4.02, 4.92, 6.66, 7.11, 7.11, 7.11, 7.11, 5.35, 5.35, 5.35, 5.35, 5.35, 5.35, 5.35, 5.35, 5.35, 5.59, 5.59, 5.86, 5.86, 5.86, 5.86, 5.86, 5.86, 6.03, 6.03, 6.28, 6.67, 6.67, 6.67, 6.67, 6.67, 6.67, 6.8, 6.8, 6.8, 6.8, 7.2, 7.31, 7.31, 7.2, 6.8, 6.8, 7.01, 7.01, 7.01, 6.8, 6.8, 7.2, 7.2, 7.2, 7.08, 7.08, 7.2, 6.95, 6.95, 6.56, 6.41, 6.41, 6.41, 6.56, 6.56, 6.56, 6.56, 6.41, 6.41, 6.41, 6.67, 6.67, 6.03, 6.8, 5.4, 5.4, 5.7, 5.26, 4.38, 5.31, 6.65, 7.89, 9.26, 11.15, 12.52, 13.39, 15.13, 16.19, 14.83, 12.14, 8.01, 1.26, -0.57, 0.0, 0.63, 1.34, 1.34, 1.79, 2.68, 3.58, 4.02, 5.77, 6.55, 7.89, 8.36, 8.36, 8.36, 8.36, 5.35, 5.35, 5.35, 5.35, 5.35, 5.35, 5.35, 5.35, 5.35, 5.35, 5.86, 5.86, 5.86, 5.86, 5.86, 5.86, 5.86, 6.13, 6.28, 6.28, 6.28, 6.28, 6.28, 6.28, 6.28, 6.67, 6.67, 6.8, 6.8, 7.2, 7.31, 7.31, 7.2, 6.8, 6.8, 6.8, 6.8, 6.8, 6.8, 6.8, 7.2, 7.2, 6.95, 6.95, 6.95, 6.95, 6.95, 6.95, 6.95, 6.95, 6.41, 6.41, 6.41, 6.41, 6.41, 6.41, 6.41, 6.41, 6.41, 6.41, 6.41, 6.41, 6.41, 5.75, 5.75, 4.98, 5.26, 3.51, 4.41, 5.31, 7.06, 7.42, 9.24, 10.7, 11.62, 11.51, 11.37, 12.39, 13.99, 15.59, 15.9, 9.36, 0.65, -0.65, 0.0, 1.26, 1.26, 1.86, 2.5, 3.32, 7.74, 5.86, 6.28, 7.21, 7.71, 7.98, 7.98, 7.98, 5.35, 5.35, 5.35, 5.35, 5.35, 5.35, 5.35, 5.01, 5.01, 5.29, 5.29, 5.49, 5.49, 5.49, 5.86, 5.49, 5.75, 6.13, 6.13, 6.28, 6.28, 6.28, 6.28, 6.28, 6.28, 6.67, 6.67, 6.8, 6.8, 7.2, 7.2, 7.2, 7.2, 6.8, 6.8, 6.8, 6.8, 6.8, 6.8, 7.2, 6.95, 6.95, 6.95, 6.95, 6.95, 6.95, 6.95, 6.95, 6.95, 6.95, 6.41, 6.41, 6.41, 6.41, 6.41, 6.41, 6.41, 6.41, 6.41, 6.41, 6.41, 6.41, 6.03, 6.28, 5.47, 5.81, 5.4, 2.6, 4.15, 5.59, 7.21, 7.89, 8.9, 9.83, 9.7, 9.33, 10.43, 11.62, 12.04, 12.39, 16.63, 17.9, 6.71, 0.0, 0.0, 0.65, 2.21, 1.88, 2.41, 5.59, 5.4, 2.4, 2.4, 2.91, 4.66, 5.34, 5.34, 5.34, 5.01, 5.01, 5.01, 5.01, 5.01, 5.01, 5.01, 5.01, 5.01, 5.29, 5.29, 5.29, 5.49, 5.49, 5.75, 5.75, 5.75, 5.75, 6.13, 6.28, 6.28, 6.28, 6.28, 6.28, 6.67, 6.67, 6.8, 6.8, 6.95, 6.95, 6.95, 7.2, 6.8, 6.8, 6.8, 6.8, 6.8, 6.95, 6.95, 6.95, 6.95, 6.95, 6.95, 6.95, 6.95, 6.7, 6.7, 6.95, 6.95, 6.95, 6.41, 6.41, 6.41, 6.41, 6.41, 6.41, 6.41, 6.41, 6.41, 6.41, 6.41, 5.86, 6.13, 5.75, 5.37, 5.75, 5.81, 5.4, 5.75, 5.75, 6.7, 7.55, 8.49, 8.9, 9.06, 9.33, 10.68, 11.45, 10.95, 10.43, 13.64, 20.46, 16.29, 2.4, -1.41, 0.0, 1.27, 2.48, 2.73, 0.99, 0.45, 0.45, 1.34, 1.79, 2.24, 2.68, 2.68, 2.68, 5.01, 5.01, 5.01, 4.74, 4.74, 5.01, 5.01, 5.01, 5.29, 5.29, 5.29, 5.29, 5.49, 5.75, 5.75, 5.75, 5.75, 5.75, 5.75, 6.28, 6.28, 6.28, 6.28, 6.67, 6.67, 6.67, 6.56, 6.95, 6.95, 6.95, 6.95, 6.56, 6.8, 6.8, 6.8, 6.95, 6.95, 6.95, 6.95, 6.95, 6.95, 6.95, 6.95, 6.7, 6.7, 6.7, 6.7, 6.51, 6.79, 6.41, 6.41, 6.41, 6.41, 6.41, 6.41, 6.23, 6.23, 5.93, 5.93, 6.15, 6.23, 5.86, 5.29, 5.29, 5.29, 6.13, 5.75, 5.75, 5.75, 5.16, 5.36, 6.26, 7.56, 8.36, 9.06, 9.54, 10.02, 10.25, 10.01, 9.9, 11.37, 15.77, 20.23, 11.47, 0.61, -1.36, 0.0, 1.94, 1.2, 0.0, -0.0, -0.0, 1.2, 1.7, 1.79, 2.24, 2.24, 2.24, 4.74, 4.74, 4.74, 4.74, 4.74, 4.43, 4.74, 5.05, 5.29, 5.29, 5.29, 5.29, 5.29, 5.75, 5.75, 5.75, 5.75, 5.75, 5.75, 6.13, 6.28, 6.28, 6.28, 6.67, 6.41, 6.41, 6.56, 6.95, 6.95, 6.95, 6.95, 6.41, 6.41, 6.56, 6.95, 6.95, 6.95, 6.95, 6.95, 6.95, 6.95, 6.7, 6.7, 6.7, 6.7, 6.7, 6.51, 6.15, 6.15, 6.41, 6.41, 6.41, 6.41, 6.41, 5.93, 5.93, 5.93, 5.93, 5.93, 5.93, 5.59, 5.86, 5.29, 5.29, 4.74, 4.84, 5.21, 5.75, 5.2, 5.31, 5.36, 4.92, 7.11, 8.01, 8.8, 9.26, 9.26, 9.11, 9.49, 10.01, 10.01, 11.09, 16.06, 19.26, 5.81, -1.35, 0.63, 0.61, 0.57, 0.45, 0.45, 0.45, 0.89, 1.34, 1.79, 2.24, 2.24, 2.24, 4.74, 4.74, 4.43, 4.43, 4.43, 4.71, 4.71, 4.71, 4.71, 4.94, 4.94, 4.94, 5.29, 5.58, 5.75, 5.75, 5.75, 5.75, 5.75, 5.75, 6.13, 6.28, 6.28, 6.41, 6.41, 6.41, 6.95, 6.95, 6.95, 6.95, 6.41, 6.41, 6.41, 6.41, 6.95, 6.95, 6.95, 6.95, 6.95, 6.95, 6.7, 6.7, 6.7, 6.7, 6.51, 6.51, 6.15, 6.15, 6.15, 6.15, 6.15, 6.41, 6.41, 6.15, 5.93, 6.15, 6.15, 5.93, 5.93, 5.59, 5.59, 5.65, 5.29, 4.74, 4.74, 4.81, 3.84, 5.75, 6.02, 6.2, 5.81, 4.92, 3.95, 6.71, 8.01, 8.8, 8.63, 8.4, 8.95, 10.01, 10.01, 9.33, 11.62, 19.77, 14.7, -2.07, -0.61, -1.2, 0.0, 1.2, 1.34, 0.45, 0.45, 0.45, 1.34, 1.34, 1.34, 1.34, 4.74, 4.43, 4.12, 4.12, 4.71, 4.71, 4.71, 4.71, 4.71, 4.71, 4.94, 4.94, 4.94, 5.58, 5.58, 5.75, 5.75, 5.75, 5.75, 5.75, 6.13, 6.28, 6.03, 6.41, 6.41, 6.41, 6.95, 6.95, 6.95, 6.95, 6.41, 6.41, 6.41, 6.41, 6.56, 6.95, 6.95, 6.95, 6.95, 6.7, 6.51, 6.51, 6.51, 6.51, 6.15, 6.15, 6.15, 6.15, 6.15, 6.15, 6.41, 6.15, 6.15, 6.15, 6.15, 6.15, 6.15, 5.93, 5.93, 5.59, 5.86, 5.86, 5.29, 5.01, 5.35, 4.74, 3.84, 5.34, 6.21, 6.26, 6.26, 6.26, 5.31, 4.38, 6.26, 7.45, 8.14, 8.3, 8.82, 10.25, 10.25, 9.83, 10.16, 16.92, 2.24, -3.32, -2.4, -2.17, -0.63, 1.86, 2.6, 1.34, 0.0, 0.0, 0.45, 0.89, 0.89, 0.89, 4.12, 4.12, 4.12, 3.83, 4.11, 4.11, 4.37, 4.71, 4.71, 4.71, 4.71, 4.94, 4.94, 4.94, 5.58, 5.58, 5.75, 5.75, 5.75, 6.13, 5.86, 6.03, 6.03, 6.03, 6.41, 6.41, 6.95, 6.95, 6.95, 6.41, 6.41, 6.41, 6.41, 6.41, 6.41, 6.41, 6.41, 6.79, 6.79, 6.41, 6.41, 6.15, 6.15, 6.15, 6.15, 6.15, 6.15, 6.15, 6.15, 6.23, 6.23, 5.93, 6.15, 6.51, 6.15, 6.15, 5.93, 5.93, 5.93, 5.93, 5.59, 5.59, 5.01, 5.35, 5.35, 4.45, 3.84, 3.83, 5.09, 5.81, 6.26, 7.15, 6.26, 4.41, 4.92, 5.75, 7.35, 8.0, 9.33, 9.97, 10.25, 10.75, 11.15, 15.63, 2.12, -3.07, -2.63, -2.68, -1.34, 1.2, 3.07, 2.6, 1.2, 0.8, 0.89, 1.2, 1.2, 1.2, 4.12, 4.12, 3.83, 3.83, 4.11, 4.11, 4.11, 4.37, 4.71, 4.71, 4.71, 4.71, 4.94, 4.94, 5.21, 5.21, 5.58, 5.75, 5.75, 5.49, 5.86, 5.86, 6.03, 6.03, 6.41, 6.41, 6.79, 6.95, 6.79, 6.41, 6.41, 6.41, 6.41, 6.41, 6.15, 6.41, 6.41, 6.41, 6.41, 6.41, 6.41, 6.41, 6.41, 6.41, 6.41, 6.15, 6.15, 6.23, 5.86, 5.86, 5.93, 5.93, 6.51, 5.93, 5.93, 5.59, 5.93, 5.93, 5.93, 5.93, 5.93, 5.59, 5.35, 5.35, 5.06, 5.06, 4.43, 4.07, 2.8, 5.29, 5.75, 6.26, 6.21, 5.09, 4.22, 4.84, 6.94, 9.24, 10.02, 9.54, 9.97, 11.18, 16.07, 14.29, 2.12, -2.8, -2.86, -2.5, -2.6, -0.45, 1.7, 2.91, 2.15, 2.4, 2.17, 1.79, 1.79, 1.79, 4.12, 4.12, 3.83, 3.83, 4.11, 4.11, 4.11, 4.11, 4.37, 4.71, 4.71, 4.71, 4.71, 4.94, 5.21, 5.21, 5.58, 5.58, 5.49, 5.49, 5.86, 5.86, 5.86, 6.03, 6.41, 6.41, 6.41, 6.41, 6.41, 6.41, 6.23, 6.23, 6.15, 6.15, 6.15, 6.15, 6.15, 6.41, 6.41, 6.41, 6.41, 6.41, 6.41, 6.41, 6.41, 6.41, 6.23, 5.86, 5.86, 5.93, 5.93, 6.15, 5.93, 5.59, 5.86, 5.59, 5.93, 6.15, 6.51, 5.65, 5.65, 5.37, 5.37, 5.37, 5.37, 5.06, 5.01, 4.37, 2.86, 5.09, 5.29, 4.92, 4.92, 5.29, 4.85, 5.29, 6.7, 9.06, 10.45, 10.02, 9.97, 11.18, 15.78, 15.34, 3.51, -2.17, -2.86, -2.79, -2.53, -1.58, 0.57, 2.21, 2.53, 2.86, 2.91, 2.68, 2.68, 2.68, 4.12, 4.12, 4.12, 3.83, 4.11, 4.11, 4.11, 4.11, 4.37, 4.71, 4.71, 4.71, 4.71, 4.71, 4.94, 4.94, 4.94, 5.29, 5.49, 5.49, 5.49, 5.86, 5.86, 5.86, 6.41, 6.41, 6.41, 6.41, 6.41, 6.23, 5.86, 5.86, 5.93, 6.15, 6.15, 6.15, 5.93, 5.93, 6.41, 6.41, 6.41, 6.41, 6.41, 6.41, 6.41, 5.86, 5.86, 5.86, 5.93, 5.93, 6.15, 5.93, 5.59, 5.86, 5.59, 5.93, 5.65, 6.23, 5.98, 5.98, 5.65, 5.37, 5.37, 5.37, 5.37, 5.06, 5.01, 4.71, 4.65, 4.8, 4.38, 4.38, 4.47, 4.47, 4.92, 4.92, 5.81, 8.01, 9.7, 10.02, 9.97, 12.58, 14.4, 16.33, 10.62, 0.0, -2.91, -2.51, -1.84, -1.16, 0.53, 2.07, 3.49, 3.45, 3.82, 3.97, 3.97, 3.97, 4.12, 4.12, 4.12, 3.83, 3.83, 3.83, 4.11, 4.11, 4.11, 4.71, 4.71, 4.71, 4.71, 4.71, 4.71, 4.94, 4.94, 5.29, 5.29, 5.29, 5.49, 5.49, 5.86, 5.86, 5.86, 6.41, 6.41, 6.41, 5.86, 5.86, 5.86, 5.86, 5.59, 5.59, 5.86, 5.86, 5.59, 5.59, 5.59, 5.86, 5.86, 5.86, 6.41, 6.23, 5.86, 5.86, 5.86, 5.93, 5.93, 5.93, 5.93, 5.86, 5.59, 5.59, 5.93, 5.98, 5.98, 5.98, 5.98, 5.98, 5.65, 5.37, 5.08, 5.08, 5.37, 5.35, 5.29, 4.94, 4.65, 4.8, 4.15, 4.38, 4.02, 4.47, 5.36, 5.81, 5.75, 7.15, 8.49, 9.26, 9.54, 11.66, 12.58, 14.7, 15.18, 4.92, -1.34, -1.9, -1.4, -0.53, 0.61, 2.84, 4.66, 5.16, 4.87, 4.87, 4.87, 4.87, 4.12, 4.12, 4.12, 3.83, 3.83, 3.83, 3.83, 3.83, 4.12, 4.71, 4.71, 4.71, 4.71, 4.71, 4.71, 4.71, 4.94, 5.29, 5.29, 5.29, 5.29, 5.49, 5.49, 5.86, 5.86, 5.86, 5.86, 5.86, 5.86, 5.86, 5.86, 5.86, 5.86, 5.86, 5.86, 5.86, 5.59, 5.59, 5.59, 5.59, 5.59, 5.93, 5.93, 5.59, 5.86, 5.59, 5.93, 5.93, 5.93, 5.93, 5.59, 5.59, 5.59, 5.65, 5.65, 5.98, 5.98, 5.98, 5.98, 5.65, 5.65, 5.08, 5.38, 5.37, 5.37, 5.35, 5.29, 4.94, 4.37, 4.19, 4.22, 3.95, 4.02, 4.47, 5.81, 6.26, 6.21, 5.75, 7.11, 7.89, 8.82, 10.75, 12.58, 13.65, 16.09, 13.96, 3.13, -0.89, -1.26, -0.0, 1.24, 2.91, 5.2, 5.77, 4.92, 4.02, 4.02, 4.02, 4.12, 4.12, 4.12, 3.83, 3.83, 3.83, 4.12, 4.12, 4.12, 4.12, 4.43, 4.43, 4.71, 4.71, 4.71, 4.71, 4.94, 5.29, 5.29, 5.29, 5.29, 5.29, 5.49, 5.86, 5.86, 5.86, 5.86, 5.86, 5.86, 5.86, 5.86, 5.86, 5.86, 5.86, 5.86, 5.59, 5.59, 5.59, 5.59, 5.59, 5.59, 5.93, 5.59, 5.59, 5.59, 5.93, 5.93, 5.93, 5.59, 5.86, 5.65, 5.59, 5.65, 5.65, 5.98, 5.98, 5.98, 5.98, 5.98, 5.69, 5.69, 5.69, 5.37, 5.37, 5.35, 5.35, 5.29, 4.94, 4.71, 4.65, 4.0, 3.6, 3.58, 4.02, 4.92, 5.75, 6.02, 6.02, 6.16, 7.6, 9.24, 10.93, 12.74, 13.21, 13.96, 15.84, 11.23, 1.79, -1.34, -0.45, 0.89, 2.68, 4.02, 5.36, 4.47, 3.58, 3.58, 3.58, 4.12, 4.12, 4.12, 4.12, 4.12, 4.12, 4.12, 4.12, 4.12, 4.12, 4.43, 4.43, 4.43, 4.71, 4.71, 4.71, 4.71, 4.94, 5.29, 5.29, 5.29, 5.29, 5.29, 5.86, 5.86, 5.86, 5.49, 5.29, 5.49, 5.86, 5.86, 5.86, 5.86, 5.86, 5.59, 5.59, 5.59, 5.59, 5.59, 5.59, 5.59, 5.59, 5.59, 5.59, 5.93, 5.93, 5.93, 5.59, 5.29, 5.29, 5.59, 5.65, 5.65, 5.98, 5.98, 5.98, 5.69, 5.69, 5.69, 5.69, 5.69, 5.69, 5.65, 5.65, 5.59, 5.86, 5.29, 4.94, 4.71, 4.65, 4.07, 3.6, 2.54, 4.47, 4.02, 4.92, 5.31, 5.75, 5.75, 7.11, 9.11, 11.06, 12.42, 12.74, 12.58, 13.49, 14.3, 9.33, 1.2, -1.2, 0.45, 1.79, 3.13, 4.47, 4.02, 3.13, 3.13, 3.13, 4.12, 4.12, 4.12, 4.12, 4.12, 4.12, 4.12, 4.12, 4.12, 4.12, 4.43, 4.43, 4.71, 4.71, 4.71, 4.71, 4.71, 4.71, 4.94, 5.29, 5.29, 5.29, 5.29, 5.29, 5.29, 5.29, 5.29, 5.29, 5.01, 5.35, 5.35, 5.35, 5.35, 5.35, 5.35, 5.35, 5.59, 5.59, 5.59, 5.59, 5.59, 5.59, 5.59, 5.93, 5.93, 5.59, 5.35, 5.29, 5.29, 5.35, 5.65, 5.65, 5.65, 5.98, 5.98, 5.69, 5.69, 5.69, 5.69, 5.69, 5.69, 5.65, 5.65, 5.59, 5.59, 5.86, 5.29, 4.94, 4.71, 4.37, 4.07, 4.0, 3.72, 4.77, 4.02, 4.47, 4.92, 5.31, 5.75, 6.66, 8.01, 10.7, 11.06, 11.84, 10.95, 10.68, 13.49, 14.95, 7.45, 0.0, -0.63, 1.2, 3.07, 3.97, 3.51, 2.68, 2.68, 2.68, 4.12, 4.12, 4.12, 4.12, 4.12, 4.12, 4.12, 4.12, 4.12, 4.12, 4.43, 4.43, 4.71, 4.71, 4.71, 4.71, 4.71, 4.71, 4.94, 5.29, 5.29, 5.29, 5.29, 5.29, 5.29, 5.29, 5.29, 5.29, 5.01, 5.35, 5.35, 5.35, 5.35, 5.35, 5.35, 5.35, 5.59, 5.59, 5.59, 5.59, 5.59, 5.59, 5.59, 5.93, 5.93, 5.59, 5.35, 5.29, 5.29, 5.35, 5.65, 5.65, 5.65, 5.98, 5.98, 5.69, 5.69, 5.69, 5.69, 5.69, 5.69, 5.65, 5.65, 5.59, 5.59, 5.86, 5.29, 4.94, 4.71, 4.37, 4.07, 4.0, 3.72, 4.77, 4.02, 4.47, 5.29, 5.31, 5.75, 6.66, 8.01, 9.36, 10.16, 10.45, 9.49, 9.03, 11.26, 15.67, 13.89, 3.04, 0.0, 0.6, 2.8, 3.82, 2.8, 2.4, 2.4, 2.4]}, {"header": {"dx": 0.06612293990616946, "dy": 0.0552356325346848, "nx": 98, "ny": 59, "la1": 35.046912555036876, "la2": 31.78801023549047, "lo1": -121.43107172385933, "lo2": -114.95102361305473, "refTime": "2026041310", "parameterCategory": 1, "parameterNumber": 3}, "data": [-5.59, -5.35, -5.35, -5.35, -5.35, -5.35, -5.01, -5.01, -4.94, -4.71, -4.71, -4.29, -2.4, -1.7, -0.63, 0.0, 0.0, 0.0, 0.0, 0.0, 0.0, 1.27, 0.88, 0.0, 0.0, 0.0, 0.0, 0.61, 1.49, 2.98, 3.72, 3.72, 3.43, 2.98, 1.33, 0.0, 0.0, -0.45, -0.89, -1.79, -2.23, -2.95, -3.45, -3.6, -4.4, -5.3, -6.0, -6.4, -4.75, 0.0, 3.84, 5.43, 5.43, 5.69, 6.01, 6.24, 6.14, 6.05, 5.52, 4.71, 4.6, 3.91, 4.71, 4.71, 4.37, 4.71, 4.68, 4.65, 4.76, 4.62, 4.67, 4.01, 3.04, 2.31, 2.39, 2.4, 2.15, 2.5, 2.2, 2.2, 1.35, 0.7, -0.0, -0.0, -0.0, -0.0, 0.0, 0.0, 0.0, -1.52, -2.33, -2.39, -1.6, -0.74, 0.0, 0.0, 0.76, 0.79, -5.35, -5.35, -5.35, -5.35, -5.35, -5.35, -5.01, -4.74, -4.71, -4.71, -4.37, -2.53, -1.9, -0.57, 0.0, 0.0, 0.0, 0.0, 0.0, 0.0, 0.0, 0.0, 0.0, 0.0, 0.0, 0.0, 0.0, 0.76, 1.33, 2.79, 3.79, 3.72, 3.79, 3.48, 2.98, 1.55, 0.0, -0.95, -0.89, -1.34, -2.98, -3.76, -4.46, -5.64, -6.2, -6.9, -6.79, -4.68, -0.72, 3.16, 5.09, 5.43, 5.37, 5.69, 5.69, 6.24, 6.14, 6.31, 5.41, 4.6, 4.5, 4.6, 4.96, 5.13, 4.6, 5.52, 5.51, 4.65, 4.61, 4.71, 4.67, 3.83, 3.13, 2.25, 2.41, 2.28, 2.4, 2.5, 2.2, 2.2, 1.35, 0.7, -0.0, -0.0, -0.0, -0.0, 0.0, 0.0, 0.0, -1.52, -2.33, -2.39, -1.6, -0.74, 0.0, 0.0, 0.76, 0.79, -5.35, -5.35, -5.35, -5.35, -5.35, -5.35, -4.74, -4.74, -4.43, -4.12, -4.11, -3.49, -1.2, 0.0, 0.0, 0.0, 0.0, 0.0, -0.85, 0.0, -0.99, 0.0, 0.0, 0.0, 0.0, 0.65, 0.76, 1.16, 1.4, 1.88, 2.15, 2.84, 3.14, 3.22, 2.2, 0.96, 0.0, -0.61, -1.6, -1.79, -4.19, -5.49, -6.57, -7.24, -7.12, -5.99, -3.78, 0.0, 2.3, 4.43, 5.06, 5.37, 5.37, 5.69, 5.69, 5.94, 6.14, 5.41, 5.41, 4.6, 3.88, 4.71, 4.71, 5.49, 5.38, 5.18, 5.4, 5.2, 5.45, 4.71, 4.67, 3.86, 2.34, 1.57, 0.78, 1.52, 1.47, 1.7, 1.41, 1.35, 1.41, 0.73, -0.0, -0.0, -0.0, -0.0, 0.0, -0.71, -2.12, -3.11, -3.17, -2.37, -1.5, -0.78, 0.0, 0.0, 0.0, 0.0, -5.35, -5.35, -5.35, -5.35, -5.35, -5.01, -4.74, -4.43, -4.43, -4.12, -4.11, -2.86, -1.24, 0.0, 0.0, 0.0, 0.0, 0.0, -0.85, -0.99, -0.87, 0.0, 0.0, 0.0, 0.73, 0.76, 1.33, 1.49, 1.16, 1.2, 1.24, 1.24, 1.49, 1.08, 1.14, 0.0, 0.0, -2.16, -3.07, -4.46, -6.44, -6.88, -6.79, -5.28, -4.0, -2.18, 0.0, 2.11, 3.64, 4.65, 4.71, 5.37, 5.37, 6.06, 6.39, 6.24, 5.64, 5.41, 4.5, 3.95, 3.7, 4.46, 5.1, 5.21, 5.38, 5.18, 5.51, 5.52, 5.55, 6.42, 5.51, 4.63, 3.12, 0.69, 0.0, 0.0, 0.0, 0.0, -0.0, 0.78, 0.63, -0.0, -0.0, -0.0, -0.0, -0.0, -0.95, -2.07, -4.0, -4.48, -3.11, -1.54, -1.58, -1.44, -1.54, -0.76, -0.77, 0.0, -5.35, -5.35, -5.01, -5.01, -5.01, -5.01, -4.74, -4.43, -4.43, -4.11, -3.49, -2.86, -0.71, -0.57, -0.57, 0.0, -0.71, -0.85, -1.58, -1.74, -1.41, -1.41, -1.13, 0.0, 0.0, 0.0, 0.0, 0.88, 0.0, 0.0, 0.0, 0.0, -0.71, -1.7, -2.4, -2.32, -2.32, -3.17, -5.59, -6.7, -6.7, -5.3, -2.8, -1.47, 0.0, 0.0, 1.52, 3.0, 3.55, 4.65, 4.74, 4.65, 5.43, 5.72, 6.01, 5.38, 4.71, 4.6, 4.68, 3.85, 4.0, 4.03, 4.95, 5.3, 5.38, 5.18, 4.8, 4.68, 6.1, 6.17, 6.37, 5.51, 4.88, 3.07, 0.0, -1.79, -1.34, -0.0, -0.0, -0.0, -0.0, -0.61, -0.66, -0.78, -0.76, -1.86, -1.88, -3.6, -4.6, -3.95, -2.35, -1.58, -2.23, -3.15, -2.31, -1.54, -1.52, -1.48, -5.86, -5.29, -5.01, -5.01, -5.01, -4.74, -4.43, -4.43, -4.71, -4.11, -3.15, -2.23, -0.71, -0.57, -0.57, -0.99, -0.8, -1.98, -1.49, -2.21, -2.68, -1.66, -1.41, -1.27, -2.48, -2.48, -1.3, -1.08, 0.0, 0.0, 0.0, -1.2, -1.79, -3.48, -4.29, -3.79, -3.11, -3.6, -4.03, -3.84, -3.07, -1.74, -0.7, 0.0, 0.0, 0.79, 2.26, 3.0, 3.9, 4.01, 3.72, 4.43, 4.74, 5.06, 4.83, 4.6, 3.7, 3.88, 3.85, 4.01, 3.15, 3.64, 4.74, 5.3, 5.49, 5.52, 4.6, 4.07, 4.6, 5.38, 5.46, 5.56, 6.36, 5.65, 0.66, -1.24, -0.53, -0.0, -0.0, -1.52, -2.2, -2.07, -1.27, -1.41, -2.73, -3.53, -5.43, -5.18, -4.6, -3.6, -2.26, -3.11, -4.5, -2.8, -1.33, -1.41, -2.21, -2.34, -5.86, -5.29, -5.29, -5.29, -5.29, -4.71, -4.71, -4.71, -4.11, -3.49, -2.86, -2.23, -1.24, -0.99, -2.21, -1.26, -1.58, -1.49, -1.24, -1.58, -1.74, -1.6, -1.8, -2.53, -2.4, -3.79, -3.79, -1.74, -1.49, -0.63, -0.45, -1.2, -1.79, -2.41, -4.29, -4.29, -4.29, -3.17, -1.83, -0.95, -1.34, -1.7, -1.74, -0.96, 0.0, 2.04, 3.79, 3.79, 3.9, 4.47, 4.47, 3.79, 4.01, 3.9, 3.79, 3.27, 2.99, 2.31, 2.28, 3.11, 3.2, 3.79, 4.11, 3.9, 3.69, 4.5, 4.6, 3.06, 2.35, 2.37, 3.04, 3.07, 3.61, 4.01, 1.58, 0.0, 0.61, 1.2, -0.0, -2.5, -3.72, -3.79, -2.48, -2.98, -4.46, -6.26, -7.03, -6.24, -4.6, -4.71, -5.78, -6.7, -4.71, -1.24, -0.57, -1.27, -3.11, -3.07, -5.86, -5.29, -5.29, -5.29, -4.94, -4.71, -4.71, -4.11, -3.49, -3.48, -2.86, -2.86, -1.49, -1.24, -2.23, -1.86, -1.9, -1.9, -1.24, -1.0, -0.8, -1.0, -0.8, -1.2, -1.4, -1.74, -2.21, -2.23, -1.34, -1.34, -1.79, -2.24, -3.9, -5.59, -5.64, -5.69, -5.72, -4.56, -2.0, 0.0, 0.0, -0.89, -1.58, -1.24, 0.0, 2.23, 3.84, 3.9, 4.36, 5.37, 2.79, 2.98, 3.64, 3.0, 2.35, 2.26, 1.55, 1.49, 1.52, 1.49, 2.4, 2.15, 2.15, 3.22, 3.0, 4.0, 4.01, 2.21, 0.0, 0.0, 0.76, 0.75, 0.0, 0.0, 1.53, 0.61, 2.24, 2.24, 0.0, -2.12, -3.45, -5.09, -4.11, -4.73, -5.44, -6.71, -7.06, -6.7, -6.24, -6.79, -7.8, -6.64, -1.86, 0.0, -0.99, -2.11, -3.78, -4.68, -5.49, -5.29, -5.29, -5.29, -4.94, -4.71, -4.37, -3.79, -3.48, -3.48, -3.48, -3.48, -2.23, -1.9, -1.9, -1.58, -2.23, -2.53, -1.74, -1.2, -1.2, 0.0, -0.85, -1.24, -1.88, -2.0, -1.4, -1.26, -1.79, -2.54, -5.81, -7.31, -7.74, -6.99, -5.72, -4.43, -5.24, -5.24, -2.21, 0.0, -0.0, 0.0, 0.0, -0.0, 0.95, 1.79, 3.82, 3.49, 4.01, 4.36, 5.44, 4.01, 3.9, 3.0, 2.35, 1.45, 0.79, 0.76, 0.79, 0.76, 1.6, 2.21, 2.53, 3.07, 3.11, 4.0, 4.58, 3.07, 0.0, -0.74, 0.0, 0.0, -0.78, 0.0, 1.41, 1.52, 1.16, 0.65, 0.0, -0.89, -1.86, -4.75, -5.31, -5.72, -6.58, -7.6, -7.76, -8.24, -8.58, -8.24, -5.72, -2.68, -1.2, -1.79, -2.23, -3.91, -5.18, -4.6, -5.49, -5.49, -5.29, -5.29, -4.94, -4.37, -3.79, -3.79, -3.2, -3.2, -3.49, -3.49, -3.79, -4.07, -1.9, -2.23, -2.6, -3.58, -2.98, -3.72, -3.72, -2.48, -2.73, -1.9, -2.84, -3.22, -2.21, -2.23, -2.8, -5.75, -6.32, -6.36, -4.82, -3.2, -2.8, -2.53, -2.95, -2.53, -1.58, 0.0, 0.0, -0.0, -0.0, -0.0, 0.95, 1.34, 2.54, 2.84, 3.22, 4.01, 4.65, 5.3, 4.83, 3.79, 2.35, 2.26, 0.79, 0.0, 0.0, 0.0, 2.21, 3.83, 6.13, 4.81, 5.37, 5.13, 5.2, 4.32, 1.32, -0.8, -1.52, -1.4, -1.38, 0.0, 0.7, 0.72, 0.0, -1.4, -1.86, -1.7, -0.99, -1.9, -4.66, -5.94, -7.12, -8.02, -8.55, -8.93, -7.92, -4.09, -1.79, -1.2, -2.86, -4.02, -5.46, -6.05, -6.05, -1.8, -5.75, -5.75, -5.58, -5.21, -4.65, -4.07, -3.79, -3.49, -3.49, -3.49, -3.49, -3.49, -3.78, -3.78, -2.21, -1.9, -1.9, -3.48, -4.07, -3.49, -1.88, -1.88, -1.88, -2.5, -5.01, -2.98, -3.93, -4.29, -5.37, -5.24, -3.48, -2.86, -1.86, -0.6, -1.86, -2.53, -2.41, -1.2, 0.0, 0.57, 0.6, 0.0, 0.0, 0.0, 1.34, 1.34, 2.12, 2.23, 2.21, 3.84, 5.09, 6.01, 5.94, 5.49, 4.46, 3.8, 3.15, 0.78, 0.0, 1.26, 4.87, 6.79, 6.94, 7.03, 8.63, 9.3, 8.37, 6.77, 3.78, 0.0, -1.45, -2.14, -1.36, -0.65, 0.0, 0.53, -0.99, -3.07, -3.58, -2.86, -1.61, -1.9, -2.63, -4.43, -5.81, -6.67, -7.33, -5.86, -2.8, -0.45, -0.0, -1.24, -3.39, -5.81, -7.6, -7.59, -3.9, 0.71, -5.75, -5.75, -5.21, -4.65, -4.07, -4.07, -3.49, -3.49, -3.49, -3.49, -3.49, -3.49, -3.49, -3.49, -3.49, -3.08, -3.08, -3.22, -3.47, -3.04, -2.36, -2.16, -2.36, -3.22, -3.79, -4.11, -4.74, -4.75, -3.79, -2.68, -1.6, -0.61, 0.0, 0.53, -0.61, -1.84, -1.33, 0.0, 1.24, 1.49, 1.61, 1.2, 1.24, 0.0, 1.79, 1.34, 2.12, 2.21, 2.21, 2.98, 4.19, 5.43, 6.01, 6.24, 6.24, 5.86, 6.31, 3.8, 0.0, 2.24, 7.6, 8.19, 7.89, 8.19, 10.75, 12.29, 12.52, 10.68, 7.69, 4.58, 2.1, 0.0, -0.72, -0.71, 0.0, 0.89, -0.45, -2.63, -4.0, -4.43, -3.07, -2.53, -3.07, -3.13, -3.58, -3.97, -3.82, -2.0, 0.0, 0.89, 0.0, -0.63, -2.91, -4.47, -6.28, -4.46, 0.0, 1.7, -5.75, -5.21, -4.93, -4.07, -4.07, -3.79, -3.49, -3.49, -3.78, -3.78, -3.49, -3.49, -3.49, -3.47, -3.47, -3.22, -3.0, -2.77, -2.77, -2.29, -2.29, -1.63, -1.76, -1.8, -2.16, -2.32, -3.0, -2.75, -2.92, -2.73, -1.47, 0.0, 0.73, 0.0, 0.0, 0.0, 0.0, 1.2, 1.24, 1.9, 1.88, 1.33, 1.33, 0.54, 0.0, 0.0, 0.0, 1.4, 1.27, 2.23, 2.41, 2.2, 2.04, 2.04, 2.12, 3.2, 5.2, 6.45, 0.73, 2.17, 7.89, 8.8, 7.76, 8.91, 10.7, 11.66, 12.33, 12.84, 10.98, 10.15, 8.74, 7.01, 1.52, -0.45, 0.54, 1.49, -0.0, -1.24, -1.24, -2.3, -4.07, -3.49, -3.82, -3.58, -3.13, -2.8, -1.9, 0.0, 0.6, 0.57, 0.0, 0.0, -0.89, -2.68, -2.68, -1.2, 1.34, 1.79, -5.21, -4.93, -4.55, -4.07, -4.07, -3.79, -3.78, -3.49, -3.49, -3.49, -3.49, -3.22, -3.47, -3.47, -3.45, -3.45, -2.77, -2.96, -2.26, -2.26, -1.71, -1.71, -1.71, -1.71, -2.23, -2.23, -2.73, -2.89, -2.86, -2.3, -2.3, -0.74, 0.0, 0.0, 0.0, 0.61, 0.61, 1.2, 1.2, 1.2, 0.61, 0.0, 0.0, 0.0, 0.0, -1.34, -0.89, 0.0, 0.0, 0.0, 0.0, -1.13, -1.8, -0.85, -1.0, 0.0, 0.0, 2.13, 1.11, 2.6, 6.54, 8.49, 8.43, 8.49, 8.05, 8.46, 9.34, 8.58, 9.48, 9.73, 11.73, 10.12, 4.48, 0.0, 1.0, 2.12, 0.8, -0.0, -0.65, -0.65, -2.15, -3.84, -3.82, -4.24, -3.13, -2.17, -0.6, 0.6, 0.95, 0.57, 0.54, 0.54, 0.0, 0.0, 0.0, 0.0, 1.34, 1.34, -5.08, -4.93, -4.55, -4.07, -4.07, -3.79, -3.78, -3.49, -3.49, -3.49, -3.22, -3.47, -3.22, -3.45, -3.0, -2.77, -2.77, -2.44, -2.26, -2.4, -1.71, -1.71, -1.81, -1.69, -2.21, -2.33, -2.86, -3.01, -2.83, -2.8, -2.39, -2.3, -1.0, 0.0, 0.0, 0.0, 1.05, 1.2, 1.08, 0.65, 0.0, 0.0, -1.05, 0.0, 0.0, 0.0, -1.26, -1.26, -2.24, -0.89, -1.6, -1.49, -1.74, -1.58, -0.95, -1.34, -2.24, -3.8, 0.0, 3.58, 4.66, 5.7, 6.26, 5.81, 5.81, 3.58, 3.82, 3.93, 5.59, 7.27, 8.2, 7.0, 3.09, 0.0, 2.6, 3.95, 2.4, -0.6, -1.6, -1.4, -1.2, -1.88, -2.5, -2.53, -2.51, -2.15, -0.0, 1.34, 1.79, 1.26, 1.2, 0.61, 0.65, 0.57, 1.26, 1.2, 1.7, 1.7, -5.08, -4.93, -4.55, -4.07, -4.07, -4.11, -3.83, -3.49, -3.49, -3.47, -3.47, -3.22, -3.45, -3.0, -2.77, -2.77, -2.77, -2.44, -2.26, -2.26, -2.23, -2.23, -1.69, -1.69, -2.33, -2.19, -2.83, -2.97, -2.8, -2.93, -2.93, -2.39, -1.67, -1.07, 0.0, 0.0, 0.61, 1.16, 1.05, 0.0, 0.0, 0.0, 0.0, 0.0, 0.0, 0.0, -1.58, -1.58, -1.58, -1.58, -1.2, -1.0, -0.8, -0.95, -0.45, -1.34, -3.04, -5.06, 0.0, 3.58, 3.13, 3.58, 3.13, 3.13, 0.89, 0.0, -0.0, 2.24, 5.94, 6.4, 3.04, 0.0, -1.54, 0.0, 2.91, 6.07, 7.06, 3.07, 0.0, -0.63, -0.0, -0.6, -1.24, -1.9, -1.49, -0.0, -0.0, 1.86, 2.24, 2.12, 1.88, 1.94, 1.49, 1.84, 2.0, 1.61, 1.86, 1.86, -4.84, -4.65, -4.07, -4.07, -4.11, -4.11, -4.12, -4.12, -3.47, -3.47, -3.47, -3.45, -3.45, -2.77, -2.77, -2.77, -2.44, -2.26, -2.26, -2.4, -2.23, -2.23, -2.37, -2.21, -2.33, -2.3, -2.97, -2.8, -2.93, -2.93, -2.93, -2.77, -2.8, -2.06, -0.59, 0.0, 0.0, 0.0, 0.0, 0.0, -1.14, -0.61, 0.0, 0.0, -1.13, -1.4, -1.2, 0.0, 0.0, 0.0, 0.0, 0.0, 0.0, 0.0, 0.0, -1.4, -3.48, -1.08, 2.23, 4.8, 4.4, 3.2, 1.58, 0.0, 0.0, -0.45, -0.0, -0.0, 1.26, 1.07, -1.08, -5.18, -4.75, 0.45, 4.24, 8.36, 10.28, 9.4, 6.33, 3.8, 3.0, 1.94, 0.0, -0.61, -1.49, -0.63, 1.2, 3.13, 2.6, 2.53, 3.32, 2.8, 2.0, 1.8, 2.0, 2.07, 1.88, 1.88, -5.01, -4.65, -4.65, -4.11, -4.11, -4.12, -4.12, -3.84, -3.84, -3.72, -3.45, -3.45, -3.45, -2.77, -2.77, -2.77, -2.44, -2.26, -2.26, -2.4, -2.73, -2.89, -2.89, -2.21, -2.33, -2.3, -2.83, -2.97, -2.8, -2.93, -2.93, -2.93, -2.93, -2.42, -2.21, -1.47, -1.27, -1.14, -1.14, -1.05, -0.87, -0.76, -0.76, -0.85, -1.27, -1.4, 0.0, 0.0, 0.0, 0.0, 1.13, 1.13, 0.99, 1.13, 0.0, 0.0, 0.0, 1.08, 2.2, 3.48, 2.73, 2.48, 1.13, 0.0, 0.0, 0.0, -0.89, -2.24, -5.81, -6.42, -5.5, -4.67, -0.63, 2.68, 5.81, 8.19, 8.93, 8.72, 7.82, 7.11, 6.69, 5.45, 3.17, -0.67, -0.63, 0.0, 2.4, 3.51, 3.32, 3.14, 4.36, 3.91, 2.2, 1.94, 2.98, 2.98, 3.38, 3.38, -4.71, -4.71, -4.37, -4.71, -4.43, -4.12, -4.12, -4.12, -4.12, -3.85, -3.45, -3.45, -3.45, -3.21, -2.77, -3.2, -2.77, -2.44, -2.26, -2.4, -2.73, -2.89, -2.92, -2.2, -2.2, -2.26, -2.92, -2.26, -2.4, -2.83, -2.8, -2.93, -2.93, -2.93, -2.8, -2.83, -3.01, -3.35, -2.35, -2.16, -1.49, -1.33, -1.74, -2.4, -1.27, 0.0, 0.0, 0.0, 0.0, 0.0, 0.0, 1.13, 1.27, 1.27, 1.08, 1.19, 1.19, 1.19, 2.4, 2.4, 2.2, 1.19, 1.08, 0.0, 0.0, -0.99, -1.74, -3.49, -8.3, -8.41, -4.38, 0.77, 3.87, 6.05, 5.94, 4.46, 3.21, 2.37, 3.17, 3.91, 3.13, 2.32, 1.51, 0.0, 0.0, 0.0, 1.9, 2.79, 3.22, 2.53, 3.07, 3.15, 2.31, 1.94, 2.98, 3.11, 2.66, 2.66, -4.74, -4.43, -4.43, -4.43, -4.74, -4.74, -4.12, -4.12, -4.12, -3.85, -3.45, -3.45, -3.42, -3.42, -3.42, -2.77, -2.77, -2.77, -2.11, -2.11, -2.29, -2.92, -3.4, -3.0, -3.11, -2.29, -2.29, -2.89, -2.86, -3.01, -3.49, -3.3, -2.8, -2.8, -2.8, -2.8, -3.3, -2.8, -2.83, -2.86, -2.37, -2.4, -1.76, -1.8, -1.16, 0.0, 0.0, 0.0, 0.0, 0.0, 0.0, 0.0, 0.0, 1.08, 0.65, 1.16, 2.16, 1.4, 0.65, 1.3, 1.19, 1.19, 1.19, 0.0, 0.0, -0.65, -1.4, -3.11, -4.6, -2.34, 0.0, 3.8, 4.77, 3.2, 1.54, -0.75, -2.34, -3.76, -0.74, 0.0, 0.0, 0.0, 0.0, 0.74, 0.78, 1.35, 2.51, 3.48, 2.53, 1.61, 0.59, 1.49, 1.44, 1.27, 1.8, 2.11, 2.11, 2.11, -4.74, -4.74, -4.74, -4.74, -4.45, -4.45, -4.45, -4.12, -3.85, -4.1, -3.68, -3.42, -3.42, -3.42, -3.42, -3.42, -3.42, -3.42, -3.42, -2.47, -2.29, -2.96, -3.4, -3.37, -3.56, -3.37, -2.89, -3.56, -3.35, -3.52, -3.32, -3.49, -3.49, -2.97, -2.97, -2.8, -2.8, -2.8, -2.8, -2.42, -2.3, -1.78, -1.81, -1.71, -1.76, -1.05, 0.0, 0.0, 0.0, 0.0, 0.0, 0.0, 0.0, 0.0, 1.19, 0.61, 1.33, 2.07, 2.16, 1.19, 1.19, 1.19, 0.0, 0.0, 0.0, -0.65, -0.76, -0.76, 0.0, 1.56, 3.01, 4.63, 4.8, 0.0, -3.91, -6.31, -7.73, -7.52, -6.31, -4.48, -2.35, -0.76, 0.0, 1.41, 1.5, 2.2, 3.43, 4.29, 4.2, 0.66, 0.0, 0.0, 0.72, 0.66, 1.16, 1.13, 1.23, 1.23, -5.35, -4.75, -4.75, -4.75, -4.75, -4.75, -4.75, -4.1, -4.1, -4.1, -3.84, -3.84, -3.42, -3.42, -3.42, -3.42, -3.42, -3.4, -3.6, -3.37, -2.92, -2.92, -3.6, -3.56, -3.35, -3.35, -3.52, -3.52, -3.52, -3.52, -3.32, -3.32, -3.49, -3.49, -3.49, -2.97, -2.97, -2.97, -2.97, -2.83, -2.3, -2.19, -1.78, -1.81, -1.71, -1.63, -1.14, -1.19, 0.0, 0.0, 0.0, 0.0, 0.0, 0.0, 0.0, 1.19, 1.33, 2.0, 2.12, 1.05, 0.65, 0.61, 0.0, 0.0, 0.0, 0.0, 0.0, 0.0, 0.76, 3.45, 5.86, 10.18, 9.6, 1.54, -6.07, -6.96, -8.58, -9.4, -10.35, -9.21, -6.21, -2.87, 0.0, 1.48, 2.21, 2.82, 3.64, 3.79, 3.31, 1.36, -0.59, -0.61, 0.0, 0.51, 0.61, 1.13, 0.66, 0.66, -5.06, -5.06, -5.06, -4.75, -4.47, -4.47, -4.47, -4.47, -4.1, -3.84, -4.08, -4.08, -4.08, -4.08, -3.64, -3.64, -3.64, -3.4, -3.6, -3.37, -2.89, -2.89, -3.37, -3.56, -3.35, -3.52, -3.52, -3.52, -3.32, -3.32, -3.32, -3.32, -3.32, -3.32, -3.32, -2.83, -2.83, -2.83, -2.83, -2.83, -2.3, -2.33, -2.33, -1.69, -1.81, -1.71, -1.1, -1.05, -0.96, 0.0, 0.0, 0.0, 0.0, 0.0, 0.0, 0.0, 0.76, 1.49, 1.99, 0.61, 0.0, 0.0, 0.0, 0.0, 0.0, 0.0, 0.0, 0.0, 0.0, 2.6, 4.71, 6.9, 2.97, -1.27, -3.2, -4.47, -6.36, -8.25, -9.86, -10.8, -9.21, -6.05, -2.35, 0.0, 1.52, 3.15, 2.9, 2.12, 2.28, 3.11, 0.0, -0.57, -0.54, 0.0, 0.53, 0.59, 0.0, 0.0, -5.06, -5.06, -5.06, -4.75, -4.47, -4.75, -4.75, -4.75, -4.75, -4.47, -4.08, -4.08, -4.08, -4.08, -4.08, -3.64, -3.4, -3.4, -3.6, -3.37, -3.37, -3.56, -3.35, -3.35, -3.35, -3.52, -3.52, -3.52, -3.32, -3.32, -3.32, -3.32, -3.32, -3.52, -3.52, -3.52, -3.01, -3.01, -3.01, -2.86, -2.33, -2.33, -2.33, -2.21, -2.37, -2.23, -2.09, -1.03, -1.14, -1.05, -1.05, 0.0, 0.0, 0.0, 0.0, 0.0, 0.0, 0.65, 1.32, 0.88, 0.0, 0.0, 0.0, 0.0, 0.0, 0.0, 0.0, 0.0, 0.4, 0.0, 0.0, 0.0, 2.36, 1.35, -0.0, -2.8, -4.47, -6.71, -8.67, -9.46, -9.45, -7.32, -4.29, -2.12, 0.0, 0.74, 0.71, 0.69, 1.45, 4.6, 2.2, 0.0, -0.57, -0.57, -0.53, -0.59, 0.0, 0.0, -5.37, -5.37, -5.37, -5.08, -4.75, -4.75, -4.75, -4.47, -4.47, -4.47, -4.47, -4.32, -3.83, -3.83, -3.83, -3.83, -3.83, -4.05, -3.6, -3.6, -3.37, -3.56, -3.35, -3.52, -3.52, -3.52, -3.52, -3.52, -3.52, -3.32, -3.32, -3.32, -3.52, -3.52, -3.52, -3.52, -3.35, -2.86, -2.86, -2.86, -2.86, -2.33, -2.21, -2.37, -2.37, -2.37, -2.23, -1.73, -1.76, -1.76, -1.8, -1.23, -1.19, 0.0, 0.0, 0.0, 0.0, 0.0, 0.0, 0.0, 0.0, 0.0, 0.0, 0.0, 0.0, 0.0, 0.0, 0.57, 0.6, -2.47, -3.78, -3.2, 2.22, 5.47, 3.04, 0.0, -1.7, -2.68, -6.26, -7.01, -8.71, -8.06, -5.95, -3.78, -2.11, -0.72, 0.0, 0.0, 1.84, 5.36, 8.27, 4.22, 0.0, -1.24, -1.58, -1.61, -1.13, -1.13, -5.37, -5.37, -5.08, -5.08, -5.08, -4.75, -4.75, -4.47, -4.47, -4.73, -4.73, -4.73, -4.05, -4.05, -4.05, -4.05, -4.05, -4.05, -4.05, -4.05, -3.6, -3.56, -3.35, -3.52, -3.52, -3.52, -3.52, -3.52, -3.52, -3.52, -3.52, -3.52, -3.52, -3.52, -3.52, -3.52, -3.35, -2.86, -2.86, -2.86, -2.86, -2.71, -2.89, -2.89, -2.89, -2.89, -2.37, -2.37, -2.37, -2.23, -2.4, -1.76, -1.1, -1.05, -1.08, -0.98, -1.27, -1.27, -0.98, 0.0, 0.0, 0.0, 0.0, 0.0, 0.0, 0.0, 0.6, 1.26, 0.0, -2.4, -3.95, -2.13, 0.78, 4.82, 7.91, 6.24, 0.0, -3.58, -3.58, -5.36, -8.91, -8.84, -7.33, -5.2, -3.16, -1.41, 0.0, 0.59, 2.53, 4.52, 7.32, 9.13, 4.73, 0.0, -1.24, -1.24, -1.2, -1.2, -5.08, -5.08, -5.08, -5.08, -5.08, -5.08, -4.47, -4.73, -4.73, -4.73, -4.73, -4.73, -4.05, -4.05, -4.05, -4.05, -4.05, -4.05, -4.05, -4.05, -3.6, -3.37, -3.56, -3.35, -3.52, -3.52, -3.52, -3.52, -3.52, -3.52, -3.52, -3.52, -3.52, -3.52, -3.35, -3.35, -2.86, -2.86, -2.86, -2.86, -3.05, -2.89, -2.89, -2.89, -2.89, -2.89, -2.89, -2.37, -2.37, -2.37, -2.23, -2.23, -1.73, -1.65, -0.7, -0.65, -1.3, -1.19, -0.65, -0.65, 0.0, 0.0, 0.0, 0.0, 0.0, 0.0, 0.8, 0.79, 0.0, -0.77, -1.63, -1.6, 0.0, 1.57, 6.24, 9.67, 3.2, -3.32, -3.51, -4.02, -6.71, -8.91, -8.38, -6.58, -4.3, -2.53, 0.0, 2.53, 4.4, 4.4, 5.31, 6.87, 8.36, 3.88, 0.59, 0.0, 0.0, 0.0, -5.38, -5.38, -5.38, -5.38, -5.08, -5.08, -5.1, -4.73, -4.73, -4.73, -4.73, -4.46, -4.46, -4.05, -4.05, -4.05, -4.05, -4.05, -4.05, -4.05, -3.6, -3.37, -3.56, -3.35, -3.52, -3.52, -3.52, -3.52, -3.52, -3.52, -3.52, -3.52, -3.52, -3.35, -3.35, -2.86, -2.86, -2.86, -2.86, -2.86, -3.05, -2.89, -2.89, -2.89, -2.23, -2.37, -2.89, -2.89, -2.89, -2.37, -2.37, -2.23, -2.23, -2.4, -2.44, -1.47, -2.32, -1.3, -0.85, -0.65, -0.61, -0.78, -0.76, -0.61, 0.0, 0.0, 1.49, 0.65, 0.0, 0.0, 0.0, -1.5, -2.37, -1.52, 0.0, 0.79, 2.4, -1.47, -2.63, -2.68, -3.53, -7.58, -8.03, -6.26, -4.47, -1.79, 1.27, 3.82, 5.46, 5.09, 4.46, 5.21, 7.71, 7.16, 4.8, 1.98, 1.23, 1.23, -5.38, -5.38, -5.38, -5.38, -5.38, -5.38, -5.1, -5.1, -4.73, -4.73, -4.73, -4.46, -4.46, -4.46, -4.05, -4.05, -4.05, -4.05, -4.05, -4.05, -3.6, -3.37, -3.56, -3.56, -3.35, -3.35, -3.35, -3.52, -3.52, -3.52, -3.52, -3.52, -3.52, -3.35, -2.86, -2.86, -2.86, -2.86, -2.86, -2.86, -2.89, -2.89, -2.73, -2.26, -2.26, -2.4, -2.37, -2.89, -2.89, -2.89, -2.89, -2.89, -2.89, -2.23, -2.73, -2.96, -2.26, -2.32, -1.6, -1.4, -1.33, -1.63, -1.47, -0.61, 0.0, 1.49, 2.15, 0.61, 0.0, -0.76, -0.8, -0.77, -2.33, -5.51, -7.9, -8.03, -3.09, -0.74, -1.16, -1.7, -1.7, -3.87, -3.87, -3.32, -1.7, 0.6, 2.8, 4.09, 4.65, 4.65, 4.01, 4.03, 4.87, 7.08, 6.95, 4.92, 3.44, 3.44, -5.38, -5.38, -5.38, -5.38, -5.38, -5.38, -5.1, -5.1, -5.1, -4.73, -4.73, -4.46, -4.46, -4.46, -4.05, -4.05, -4.05, -4.05, -4.05, -4.05, -3.81, -3.81, -4.03, -4.03, -4.03, -3.35, -3.35, -3.35, -3.35, -3.52, -3.52, -3.52, -3.35, -3.35, -2.86, -2.86, -2.86, -2.86, -2.86, -2.86, -2.89, -2.89, -2.73, -2.92, -2.26, -2.26, -2.35, -2.26, -2.92, -2.89, -2.89, -2.89, -2.89, -2.89, -2.89, -2.73, -2.92, -2.77, -2.4, -1.16, -1.49, -2.29, -1.49, -0.65, 0.0, 0.8, 1.66, 1.25, 0.0, -2.31, -2.31, -0.79, 0.0, -3.14, -8.46, -10.12, -7.0, -3.07, -1.51, -1.45, -1.2, -0.65, 1.11, 2.36, 3.0, 3.12, 4.36, 4.22, 4.14, 4.22, 4.29, 4.03, 4.4, 6.2, 6.4, 6.2, 4.92, 4.92, -5.69, -5.69, -5.38, -5.38, -5.38, -5.1, -5.1, -5.1, -5.1, -4.73, -4.73, -4.73, -4.73, -4.46, -4.46, -4.05, -4.05, -4.05, -4.05, -4.05, -3.81, -4.03, -4.03, -4.03, -4.03, -4.03, -3.35, -3.56, -3.35, -3.35, -3.35, -3.35, -3.35, -3.35, -2.86, -2.86, -2.86, -2.86, -2.86, -2.86, -2.89, -2.89, -2.89, -2.89, -2.92, -2.26, -2.35, -2.29, -2.75, -2.73, -2.89, -2.89, -2.89, -2.89, -2.89, -2.89, -2.89, -3.37, -2.92, -2.11, -2.4, -2.2, -1.16, -0.8, 0.0, 0.0, -0.71, 0.0, 0.0, -2.17, -3.15, -1.56, 0.78, 0.79, -3.76, -8.65, -7.73, -5.48, -3.1, -2.35, -2.11, 0.0, 4.1, 5.72, 5.7, 5.92, 5.02, 4.0, 3.51, 3.47, 3.64, 3.55, 4.37, 4.23, 4.94, 5.71, 5.52, 5.52, -5.69, -5.69, -5.69, -5.38, -5.1, -5.1, -5.1, -5.1, -5.1, -5.1, -4.73, -4.73, -4.73, -4.73, -4.73, -4.05, -4.05, -4.05, -4.05, -4.05, -4.28, -4.03, -4.03, -4.03, -4.03, -4.03, -4.03, -3.56, -3.09, -3.37, -3.56, -3.35, -3.35, -3.35, -3.05, -3.05, -3.05, -2.86, -2.86, -2.86, -2.89, -2.89, -2.89, -2.89, -2.89, -2.89, -2.23, -2.4, -2.92, -2.92, -2.73, -2.73, -2.89, -2.89, -2.89, -2.89, -3.37, -3.37, -3.56, -3.56, -3.11, -1.41, -0.54, -0.57, 0.0, -0.45, -1.7, -2.6, 0.0, 0.0, -0.79, -0.79, 0.0, 2.16, 0.0, -4.29, -6.0, -5.69, -5.51, -3.53, -2.1, 0.61, 3.14, 5.59, 5.1, 4.6, 4.02, 3.53, 2.23, 2.8, 3.48, 3.43, 3.26, 4.12, 4.66, 4.84, 4.77, 4.77, -5.69, -5.69, -5.69, -5.38, -5.38, -5.38, -5.1, -5.1, -5.1, -5.1, -5.1, -4.73, -4.47, -4.47, -4.73, -4.73, -4.05, -4.05, -4.05, -4.05, -4.28, -4.03, -4.03, -4.03, -4.03, -4.03, -4.03, -4.03, -3.37, -3.2, -3.4, -3.37, -3.56, -2.89, -2.89, -2.89, -2.89, -3.05, -2.86, -2.89, -2.89, -2.89, -2.89, -2.89, -2.89, -2.89, -2.89, -2.89, -2.89, -2.89, -2.89, -2.89, -2.89, -2.89, -3.37, -3.37, -3.56, -3.56, -3.56, -4.0, -3.56, -1.2, -1.41, -0.57, -0.57, -0.95, -2.6, -1.9, -2.21, 0.0, 0.0, 0.0, -1.62, -1.57, 0.0, 0.0, -2.24, -4.66, -4.94, -4.31, -1.4, 2.21, 3.58, 3.53, 3.49, 2.23, 1.71, 1.69, 1.49, 2.07, 3.22, 3.49, 3.64, 3.51, 3.46, 3.82, 4.08, 4.08, -5.69, -5.69, -5.69, -5.38, -5.38, -5.38, -5.38, -5.38, -5.1, -5.1, -5.08, -4.75, -4.47, -4.47, -4.47, -4.73, -4.73, -4.46, -4.46, -4.05, -4.28, -4.03, -4.03, -4.03, -4.03, -4.03, -4.03, -4.03, -4.03, -3.37, -3.37, -3.37, -3.37, -2.89, -2.89, -2.89, -2.89, -2.89, -2.89, -2.89, -2.89, -2.73, -2.73, -2.89, -2.89, -2.89, -2.89, -2.89, -2.89, -2.89, -2.89, -2.89, -2.89, -3.37, -3.37, -3.37, -3.56, -3.56, -3.56, -3.56, -2.99, -1.99, -2.2, -2.2, -1.2, -1.6, -2.3, -3.35, -3.45, -1.2, 0.0, 0.0, -2.28, -3.13, -0.79, 1.6, 0.0, -2.4, -4.75, -4.11, 0.0, 3.13, 3.13, 2.68, 1.86, 0.63, 0.59, 1.14, 1.35, 2.51, 2.79, 2.86, 2.73, 2.72, 2.9, 3.53, 3.53, 3.53, -5.69, -5.69, -5.69, -5.38, -5.38, -5.38, -5.38, -5.38, -5.38, -5.08, -4.75, -4.75, -4.75, -4.47, -4.47, -4.47, -4.73, -4.46, -4.46, -4.46, -4.28, -4.28, -4.28, -4.03, -4.03, -4.03, -4.03, -4.03, -4.03, -3.56, -3.37, -3.37, -3.37, -2.89, -2.89, -2.89, -2.89, -2.89, -2.89, -2.89, -2.73, -2.73, -2.73, -2.89, -2.89, -2.89, -2.89, -2.89, -2.89, -2.89, -2.89, -2.89, -3.37, -3.37, -3.37, -3.37, -3.37, -3.37, -3.37, -3.37, -2.92, -2.12, -2.16, -2.16, -2.16, -2.16, -1.83, -2.6, -1.72, -0.84, 0.0, 0.0, 0.0, -1.53, -0.79, 1.52, 2.23, 0.0, -2.47, -3.22, 0.0, 2.17, 2.6, 2.17, 1.7, 0.53, 0.0, 0.59, 1.84, 2.23, 2.53, 2.21, 2.15, 1.94, 2.04, 2.06, 3.46, 3.46, -5.69, -5.69, -5.69, -5.38, -5.38, -5.38, -5.38, -5.08, -5.08, -4.75, -4.75, -4.75, -4.75, -4.75, -4.47, -4.47, -4.73, -4.46, -4.46, -4.05, -4.05, -4.05, -4.05, -4.28, -4.03, -4.03, -4.03, -4.03, -4.03, -3.56, -3.37, -3.37, -3.37, -3.37, -2.89, -2.89, -2.89, -2.89, -2.89, -2.73, -2.92, -2.92, -2.92, -2.23, -2.89, -2.89, -2.89, -2.89, -2.89, -2.89, -2.89, -3.56, -3.56, -3.56, -3.37, -3.37, -3.37, -3.37, -3.37, -3.6, -3.37, -2.75, -2.12, -1.16, -0.76, -1.05, -0.65, -0.65, -0.82, -0.83, 0.0, 0.75, 1.06, 0.78, 0.0, 0.0, 2.35, 2.33, 0.0, -2.06, -0.6, 0.63, 1.2, 1.26, 1.26, 0.57, 0.0, 0.54, 1.4, 1.61, 1.84, 1.61, 1.4, 1.49, 1.47, 2.12, 2.69, 2.69, -5.37, -5.37, -5.38, -5.38, -5.38, -5.08, -5.08, -5.08, -4.75, -4.75, -4.75, -4.75, -4.75, -4.75, -4.47, -4.47, -4.47, -4.32, -4.05, -4.05, -4.05, -4.05, -4.05, -4.05, -4.05, -4.05, -3.81, -3.37, -3.37, -3.37, -3.37, -3.37, -3.37, -3.37, -2.89, -2.89, -2.89, -2.89, -2.73, -2.92, -2.92, -2.92, -2.75, -2.26, -2.26, -2.73, -2.89, -2.89, -2.89, -3.37, -3.37, -3.56, -3.56, -3.56, -3.37, -3.37, -3.37, -3.6, -3.6, -3.6, -3.6, -2.92, -2.26, -0.61, -0.61, -0.96, 0.0, 0.0, -0.81, -0.83, 0.0, 0.75, 2.2, 2.21, 0.0, -1.55, -1.45, 0.0, 0.0, -0.69, -0.7, 0.0, 0.0, 0.0, 0.6, 0.0, 0.0, 0.71, 0.65, 1.16, 1.16, 1.16, 1.16, 0.7, 0.66, 0.67, 0.71, 2.12, -5.08, -5.08, -5.08, -5.08, -5.08, -5.08, -5.08, -4.75, -4.75, -4.75, -4.75, -4.75, -4.75, -4.47, -4.47, -4.47, -4.47, -4.32, -4.05, -4.05, -4.05, -4.05, -4.05, -4.05, -4.05, -4.05, -3.6, -3.37, -3.37, -3.37, -3.6, -3.6, -3.37, -3.37, -2.89, -2.89, -2.89, -2.89, -2.92, -2.92, -2.92, -2.92, -2.75, -2.2, -2.26, -2.92, -3.37, -3.37, -3.37, -3.37, -3.37, -3.37, -3.56, -3.56, -3.37, -3.37, -3.6, -3.6, -3.6, -3.6, -3.4, -3.42, -2.26, -0.61, -0.76, -1.14, -1.23, -0.73, -0.81, -0.89, 0.0, 0.0, 1.13, 2.4, 2.39, -0.79, -5.09, -5.51, -2.09, 0.0, 0.0, -0.89, -0.45, 0.0, 0.0, 0.0, 0.0, 0.57, 0.71, 1.2, 1.2, 1.16, 1.33, 0.7, 0.66, 0.0, 0.0, 0.71, -5.37, -5.37, -5.08, -5.08, -5.08, -5.08, -4.47, -4.47, -4.47, -4.47, -4.47, -4.47, -4.75, -4.75, -4.08, -4.08, -4.08, -4.08, -4.08, -3.83, -4.05, -4.05, -4.05, -4.05, -3.4, -3.4, -3.6, -3.6, -3.6, -3.4, -3.4, -3.6, -3.37, -3.37, -2.89, -2.89, -2.89, -2.73, -2.92, -2.92, -2.92, -2.92, -2.92, -2.96, -2.35, -2.92, -3.6, -3.6, -3.6, -4.05, -4.05, -3.81, -3.81, -3.81, -3.81, -3.6, -3.6, -3.6, -3.6, -3.4, -3.4, -3.64, -3.0, -2.12, -1.23, -2.32, -0.61, -0.61, 0.0, 0.0, 0.0, 0.0, 0.0, 2.28, 5.46, 3.15, -3.79, -6.7, -2.88, 0.0, -0.63, -1.2, -0.0, -0.0, 0.0, 0.0, 0.71, 1.24, 1.24, 1.2, 1.2, 1.16, 0.59, 0.73, 0.0, 0.0, 0.0, 0.0, -5.37, -5.37, -5.37, -5.06, -5.06, -4.75, -4.75, -4.47, -4.47, -4.47, -4.47, -4.47, -4.47, -4.1, -4.1, -4.08, -4.08, -4.08, -4.08, -4.08, -4.08, -3.83, -3.83, -3.4, -3.4, -3.4, -3.4, -3.4, -3.4, -3.4, -3.4, -3.37, -3.37, -3.37, -3.37, -3.37, -2.92, -2.92, -2.92, -2.92, -2.92, -2.92, -3.4, -3.4, -3.4, -3.0, -3.4, -3.4, -4.05, -4.05, -4.05, -4.05, -4.05, -4.05, -4.05, -4.05, -4.05, -3.6, -3.4, -3.4, -3.4, -3.42, -3.4, -2.49, -2.32, -2.32, -0.76, -1.05, 0.0, 0.0, 0.0, -0.8, 0.0, 1.11, 4.58, 6.56, 1.54, -1.88, -2.17, -0.71, -0.54, -0.6, -0.0, 0.32, 0.45, 0.8, 1.0, 1.2, 1.2, 1.2, 1.16, 0.59, 0.66, 0.0, 0.0, 0.0, 0.0, 0.0, -5.06, -5.06, -5.06, -5.06, -4.75, -4.75, -4.75, -4.75, -4.47, -4.47, -4.47, -4.47, -4.1, -4.1, -4.1, -3.84, -3.84, -4.08, -4.08, -4.08, -4.08, -3.64, -3.64, -3.64, -3.64, -3.4, -3.4, -3.4, -3.4, -3.4, -3.6, -3.37, -3.37, -3.37, -3.37, -3.4, -2.92, -2.92, -2.92, -2.92, -2.92, -3.4, -3.4, -3.6, -3.37, -3.6, -3.4, -3.4, -3.83, -4.05, -4.05, -4.05, -4.05, -4.05, -4.05, -4.05, -4.05, -3.83, -3.4, -3.4, -3.64, -3.64, -3.45, -3.0, -2.32, -2.16, -1.14, -1.05, -0.88, 0.0, -0.74, -0.8, -1.09, 0.0, 1.09, 2.15, 4.67, 3.11, 0.61, 0.0, -0.89, -1.2, -0.45, 0.0, 0.0, 0.6, 0.57, 1.24, 1.2, 0.61, 0.0, 0.0, 0.0, -0.74, -0.79, -0.79, -0.79, -0.79, -4.75, -4.75, -4.75, -4.75, -4.75, -4.75, -4.75, -4.75, -4.75, -4.47, -4.47, -4.1, -4.1, -4.1, -4.1, -4.1, -4.1, -3.84, -3.84, -3.42, -3.64, -3.64, -3.64, -3.64, -3.64, -3.64, -3.4, -3.4, -3.4, -3.4, -3.6, -3.37, -3.37, -3.6, -3.4, -3.4, -2.92, -2.92, -2.92, -3.4, -3.4, -3.6, -3.6, -3.6, -3.81, -3.81, -3.6, -4.05, -4.05, -3.83, -4.08, -4.08, -4.08, -3.83, -3.83, -3.83, -3.83, -4.08, -4.08, -4.08, -3.64, -3.64, -3.84, -3.4, -2.16, -2.16, -1.14, -1.05, -0.88, -0.76, -0.83, -1.58, -1.54, -0.8, 0.0, 0.79, 3.98, 6.47, 6.24, 4.55, 0.8, -1.26, -1.7, -0.89, -0.63, 0.0, 0.0, 0.0, 0.0, 0.0, 0.0, -0.72, -1.45, -1.58, -1.52, -1.52, -1.52, -1.52, -4.75, -4.75, -4.75, -4.75, -4.75, -4.75, -4.75, -4.75, -4.75, -4.75, -4.1, -4.1, -4.1, -4.1, -4.1, -4.1, -4.1, -3.68, -3.42, -3.42, -3.42, -3.42, -3.42, -3.42, -3.42, -3.64, -3.64, -3.4, -3.4, -3.6, -3.37, -3.37, -3.6, -3.4, -3.4, -3.4, -3.4, -3.4, -3.4, -3.4, -3.6, -3.6, -4.05, -4.05, -4.05, -4.05, -4.05, -4.05, -4.05, -4.05, -4.08, -4.08, -4.08, -4.08, -4.08, -4.08, -4.08, -4.08, -4.08, -4.08, -4.08, -4.08, -4.08, -3.45, -3.45, -1.99, -1.05, -0.7, -0.73, -0.76, -1.18, -1.65, -1.68, -0.76, 0.0, 1.64, 4.06, 6.2, 7.0, 7.8, 7.15, 0.72, -2.6, -2.6, -1.79, -1.26, -1.26, -1.24, -1.88, -1.33, -2.21, -2.2, -2.35, -2.4, -2.31, -2.9, -2.9, -2.9, -4.75, -4.75, -4.75, -4.75, -4.75, -4.75, -4.75, -4.45, -4.45, -4.12, -4.12, -3.85, -3.85, -3.85, -4.1, -3.85, -3.45, -3.68, -3.68, -3.42, -3.42, -3.42, -3.42, -3.42, -3.42, -3.64, -3.64, -3.4, -3.4, -3.6, -3.6, -3.6, -3.6, -3.4, -3.4, -3.4, -3.4, -3.4, -3.4, -3.6, -4.05, -4.05, -4.05, -4.05, -4.05, -4.05, -4.05, -4.05, -4.05, -4.05, -4.08, -4.08, -4.08, -4.08, -4.08, -4.08, -4.08, -4.08, -4.08, -4.08, -4.08, -4.08, -3.84, -3.42, -3.04, -2.32, -2.16, -0.65, -1.66, -1.6, -2.4, -1.58, -0.81, 0.0, 1.62, 3.11, 4.01, 4.65, 4.81, 6.2, 8.71, 7.0, 0.0, -4.02, -3.58, -2.6, -2.21, -2.5, -3.22, -4.47, -2.16, -1.2, -1.2, -1.16, -1.55, -2.29, -2.29, -2.29, -4.45, -4.45, -4.45, -4.45, -4.45, -4.45, -4.45, -4.45, -4.45, -4.12, -4.12, -4.12, -3.85, -3.85, -3.45, -3.45, -3.45, -3.45, -3.68, -3.42, -3.42, -3.42, -3.42, -3.42, -3.64, -3.64, -3.4, -3.4, -4.05, -4.05, -4.05, -3.6, -3.4, -3.4, -3.4, -3.4, -3.4, -4.05, -4.05, -4.05, -4.05, -4.05, -4.05, -4.05, -4.05, -4.46, -4.46, -4.05, -4.05, -4.05, -4.08, -4.08, -4.08, -4.08, -4.08, -4.08, -4.08, -4.08, -4.08, -4.08, -4.08, -4.1, -3.68, -3.45, -3.22, -3.45, -2.32, -2.16, -3.45, -2.47, -2.51, -0.84, 0.0, 0.81, 2.47, 3.11, 3.29, 3.82, 3.91, 4.01, 5.62, 9.0, 6.21, -1.2, -5.64, -4.47, -3.82, -3.72, -4.09, -1.49, 0.0, 0.0, 0.0, 0.0, 0.0, 0.0, 0.0, 0.0, -4.45, -4.45, -4.45, -4.74, -4.74, -4.45, -4.45, -4.45, -4.12, -4.12, -4.12, -4.12, -3.85, -3.45, -3.45, -3.45, -3.45, -3.45, -3.45, -3.42, -3.42, -3.42, -3.42, -3.64, -3.64, -3.64, -3.83, -4.05, -4.05, -4.05, -4.05, -3.83, -3.4, -3.4, -3.4, -4.05, -4.05, -4.05, -4.05, -4.05, -4.05, -4.05, -4.05, -4.46, -4.46, -4.46, -4.46, -4.73, -4.32, -4.08, -4.08, -4.08, -4.08, -4.08, -4.08, -4.36, -4.36, -4.75, -4.75, -4.47, -4.36, -4.1, -4.12, -4.12, -4.12, -3.68, -3.45, -3.45, -3.45, -1.47, 0.0, 0.0, 0.76, 1.52, 2.47, 2.39, 2.31, 3.16, 3.85, 4.13, 4.06, 6.31, 10.52, 5.02, -3.07, -6.11, -4.92, -4.52, -2.4, -0.45, 0.89, 0.89, 0.6, 0.57, 0.0, 0.0, 0.0, 0.0, -4.74, -4.74, -4.74, -4.74, -4.74, -4.43, -4.74, -4.42, -4.12, -4.12, -4.12, -4.12, -4.12, -3.45, -3.45, -3.45, -3.45, -3.45, -3.45, -3.68, -3.42, -3.42, -3.42, -3.64, -4.08, -4.08, -3.83, -4.05, -4.05, -4.05, -4.05, -4.08, -4.08, -3.83, -4.05, -4.05, -4.05, -4.05, -4.05, -4.05, -4.05, -4.46, -4.46, -4.46, -4.46, -4.46, -4.73, -4.47, -4.47, -4.08, -4.08, -4.08, -4.08, -4.08, -4.75, -4.75, -4.75, -4.75, -4.75, -4.75, -4.47, -4.1, -4.12, -4.12, -4.74, -3.22, -3.47, -2.47, -2.6, -0.76, 0.0, 0.0, 0.79, 0.8, 1.6, 1.54, 1.54, 2.28, 3.95, 3.85, 3.85, 4.75, 8.83, 10.43, 0.0, -4.73, -4.43, -3.07, -1.7, 0.0, 0.0, 0.0, 0.0, 0.0, 0.0, 0.0, 0.0, 0.0, -4.74, -4.74, -4.43, -4.43, -4.43, -4.12, -4.12, -4.12, -4.12, -3.84, -3.84, -3.84, -4.12, -3.72, -3.45, -3.45, -3.45, -3.45, -3.45, -3.45, -3.68, -3.42, -3.42, -4.08, -4.08, -4.08, -4.05, -4.05, -4.05, -4.05, -4.08, -4.08, -4.08, -4.08, -4.05, -4.05, -4.05, -4.05, -4.05, -4.05, -4.46, -4.46, -4.46, -4.46, -4.73, -4.73, -4.47, -4.47, -4.47, -4.47, -4.47, -4.08, -4.08, -4.47, -4.75, -4.47, -4.47, -4.75, -4.75, -4.47, -4.47, -4.39, -4.12, -4.74, -4.74, -4.01, -3.07, -2.47, -1.72, -0.89, 0.0, 0.0, -0.79, 0.0, 0.8, 1.6, 2.35, 3.06, 4.07, 3.85, 3.85, 3.11, 4.65, 7.12, 3.87, -3.45, -3.07, -2.4, -0.45, 0.6, 0.0, 0.0, 0.0, 0.0, 0.0, 0.0, 0.0, 0.0, -4.74, -4.43, -4.71, -4.71, -4.12, -4.12, -4.12, -4.12, -4.12, -4.12, -3.84, -3.84, -3.84, -3.72, -3.72, -3.45, -3.45, -3.45, -3.45, -3.45, -3.68, -3.42, -3.84, -4.08, -4.08, -4.08, -4.05, -4.05, -4.05, -4.05, -4.08, -4.08, -4.08, -4.08, -3.83, -4.05, -4.05, -4.05, -4.05, -4.46, -4.73, -4.73, -4.73, -4.73, -4.47, -4.47, -4.47, -4.47, -4.47, -4.47, -4.08, -4.47, -4.47, -4.47, -4.47, -4.47, -4.47, -4.75, -4.75, -4.47, -4.1, -4.1, -4.12, -4.45, -4.75, -4.74, -3.07, -2.29, -0.78, 0.0, 0.0, 0.0, -0.76, -0.88, 0.0, 1.49, 2.44, 3.32, 3.21, 3.16, 3.16, 3.02, 1.56, 1.54, 0.0, -1.33, -1.2, -0.54, 0.63, 1.24, 0.65, 0.0, 0.0, 0.0, 0.0, 0.0, 0.0, 0.0, -4.71, -4.71, -4.71, -4.37, -4.11, -4.11, -3.83, -4.12, -4.12, -4.12, -4.12, -3.84, -3.84, -3.84, -3.72, -3.72, -3.45, -3.45, -3.45, -3.68, -4.1, -3.84, -3.84, -3.84, -4.08, -4.08, -4.05, -4.05, -4.05, -4.08, -4.08, -4.08, -4.08, -4.08, -4.08, -4.08, -4.08, -4.32, -4.32, -4.08, -4.08, -4.47, -4.47, -4.47, -4.47, -4.47, -4.47, -4.47, -4.47, -4.36, -4.36, -4.75, -4.47, -4.73, -4.47, -4.47, -4.75, -4.75, -4.75, -4.75, -4.47, -4.47, -4.45, -4.75, -4.75, -5.01, -3.07, -2.3, -1.7, 0.0, 0.0, 0.0, 0.0, 0.73, 0.0, 2.47, 3.27, 4.0, 3.11, 2.49, 3.16, 3.07, 0.8, 0.78, 0.71, 0.61, 0.53, -0.0, -0.0, 0.6, 0.61, 0.65, 0.6, 0.4, 0.0, -0.6, -0.6, -0.6, -4.71, -4.71, -4.37, -4.37, -4.11, -4.11, -4.11, -3.83, -4.12, -4.12, -4.12, -4.12, -3.84, -3.84, -3.47, -3.47, -3.72, -3.45, -3.45, -3.85, -4.1, -4.1, -3.84, -3.84, -4.08, -4.08, -4.32, -4.05, -4.32, -4.08, -4.08, -4.08, -4.08, -4.08, -4.47, -4.08, -4.08, -4.08, -4.08, -4.08, -4.08, -4.08, -4.08, -4.08, -4.08, -4.47, -4.47, -4.36, -4.1, -4.1, -4.75, -4.75, -4.73, -4.75, -4.75, -4.47, -4.75, -4.75, -4.75, -4.75, -4.75, -4.47, -4.75, -4.75, -5.06, -5.06, -4.43, -3.49, -1.4, -0.88, -0.82, 0.0, 0.78, 1.7, 2.53, 3.22, 3.09, 3.36, 2.31, 2.39, 2.49, 3.19, 0.77, 0.75, 0.71, 1.4, 2.15, 1.88, 0.65, -0.0, 0.57, 1.16, 1.61, 1.2, 0.54, 0.0, 0.0, 0.0, -4.71, -4.71, -4.37, -4.37, -4.11, -4.11, -4.11, -4.11, -3.83, -4.12, -4.12, -4.12, -4.12, -3.84, -3.47, -3.47, -3.72, -3.72, -3.85, -3.85, -4.1, -4.1, -4.1, -3.84, -4.08, -4.08, -4.08, -4.08, -4.08, -4.08, -4.36, -4.36, -4.47, -4.47, -4.47, -4.47, -4.47, -4.08, -4.08, -4.08, -4.08, -4.08, -4.08, -4.08, -4.08, -4.08, -4.36, -4.1, -4.1, -4.75, -4.75, -4.47, -4.75, -4.47, -4.1, -4.47, -4.75, -4.47, -4.73, -5.08, -5.08, -5.37, -5.37, -5.37, -5.37, -5.06, -4.45, -3.83, -2.15, -1.7, -0.88, 0.0, 0.0, 0.88, 0.81, 0.88, 2.51, 2.47, 2.41, 2.31, 2.49, 3.19, 3.16, 3.07, 0.7, 0.54, 2.15, 3.49, 2.53, 1.58, 1.7, 2.21, 2.53, 2.15, 1.16, 0.0, 0.0, 0.0, -4.71, -4.71, -4.71, -4.37, -4.11, -4.11, -4.11, -4.11, -3.83, -4.12, -4.12, -4.12, -4.12, -4.12, -3.84, -3.84, -3.84, -4.12, -3.85, -3.85, -3.85, -4.1, -4.1, -4.1, -4.08, -4.08, -4.08, -4.08, -4.08, -4.36, -4.1, -4.1, -4.75, -4.47, -4.47, -4.47, -4.75, -4.75, -4.08, -4.08, -4.08, -4.08, -4.08, -4.08, -4.08, -4.1, -4.1, -4.1, -4.75, -4.75, -4.47, -4.75, -4.47, -4.1, -4.47, -4.75, -5.08, -5.1, -5.38, -5.38, -5.08, -5.37, -5.37, -5.37, -5.37, -5.06, -4.45, -4.12, -3.49, -2.4, -0.88, -0.88, 0.0, 0.0, 0.0, 0.0, 0.0, 0.8, 1.62, 2.31, 2.49, 3.14, 3.2, 4.67, 1.52, -0.45, 1.16, 3.14, 3.07, 2.91, 2.63, 3.45, 2.79, 2.07, 1.27, 0.66, 0.66, 0.66, -4.71, -4.71, -4.71, -4.37, -4.37, -4.37, -4.11, -4.11, -4.11, -4.12, -4.12, -4.12, -4.12, -4.12, -4.12, -3.84, -3.84, -4.12, -4.12, -4.12, -3.85, -3.85, -4.1, -4.1, -4.1, -4.08, -4.08, -4.08, -4.1, -4.1, -4.1, -4.1, -4.47, -4.47, -4.1, -4.1, -4.47, -4.47, -4.47, -4.1, -4.1, -4.1, -4.08, -4.36, -4.1, -4.1, -4.1, -4.75, -4.75, -4.75, -4.75, -4.1, -4.47, -4.47, -4.75, -5.38, -5.38, -5.38, -5.38, -5.38, -5.08, -5.37, -5.65, -5.65, -5.37, -4.75, -4.12, -3.84, -3.49, -2.4, -1.66, -0.88, 0.0, 0.0, 0.0, 0.0, -0.82, 0.0, 0.0, 1.54, 2.39, 3.11, 3.14, 3.87, 3.79, 0.0, -0.0, 1.9, 2.8, 2.63, 3.07, 2.84, 2.66, 1.47, 0.7, 0.7, 0.7, 0.7, -4.71, -4.71, -4.71, -4.37, -4.37, -4.37, -4.37, -4.37, -4.71, -4.12, -4.12, -4.12, -4.12, -4.12, -4.12, -4.12, -3.84, -4.12, -4.12, -4.12, -4.12, -3.85, -3.85, -4.1, -4.1, -4.1, -4.1, -4.1, -4.1, -4.1, -4.1, -4.1, -4.1, -4.1, -4.1, -4.1, -4.47, -4.47, -4.47, -4.47, -4.47, -4.75, -4.75, -4.47, -4.1, -4.47, -4.75, -4.75, -4.75, -4.75, -4.47, -4.47, -4.47, -5.08, -5.08, -5.38, -5.38, -5.38, -5.38, -5.08, -5.08, -5.65, -5.98, -5.37, -5.37, -4.75, -4.12, -3.84, -3.83, -3.35, -2.53, -0.79, 0.0, 0.0, 0.0, 0.0, 0.78, 0.82, 0.79, 3.15, 3.21, 3.07, 3.14, 2.41, 3.83, 3.1, 0.0, -0.0, 1.26, 1.34, 1.86, 1.16, 1.3, 0.72, 0.0, 0.0, 0.0, 0.0, -4.71, -4.71, -4.71, -4.37, -4.37, -4.37, -4.71, -4.71, -4.71, -4.71, -4.43, -4.43, -4.12, -4.12, -4.12, -4.12, -3.84, -4.12, -4.12, -4.12, -4.12, -4.12, -3.85, -4.1, -4.1, -4.1, -4.1, -4.1, -4.1, -4.1, -4.1, -4.1, -4.1, -4.1, -4.1, -4.47, -4.47, -4.47, -4.47, -4.47, -4.47, -4.75, -4.47, -4.47, -4.47, -4.75, -4.75, -4.75, -4.47, -4.1, -4.39, -4.47, -5.08, -5.08, -5.38, -5.38, -5.38, -5.38, -5.38, -5.69, -5.69, -5.69, -5.37, -5.37, -4.75, -4.75, -4.12, -3.84, -4.12, -3.49, -2.86, -1.8, 0.0, 0.0, 0.0, 0.82, 1.72, 1.72, 2.64, 3.8, 3.36, 2.34, 2.39, 2.33, 3.1, 4.75, 2.99, 0.0, -0.0, -0.0, 0.0, 0.0, 0.0, 0.0, 0.0, 0.0, 0.0, 0.0, -4.71, -4.71, -4.71, -4.71, -4.71, -4.71, -4.71, -4.71, -4.71, -4.71, -4.43, -4.43, -4.43, -4.12, -4.12, -4.12, -4.12, -3.84, -4.12, -4.12, -4.12, -4.12, -4.12, -4.1, -4.1, -4.1, -3.85, -4.12, -3.85, -4.1, -4.1, -4.1, -4.1, -4.1, -4.47, -4.47, -4.47, -4.47, -4.47, -4.47, -4.47, -4.47, -4.47, -4.47, -4.75, -4.75, -4.75, -4.47, -4.12, -4.12, -4.47, -5.08, -5.08, -5.38, -5.38, -5.38, -5.69, -5.69, -5.69, -5.69, -5.69, -5.69, -5.08, -5.08, -4.47, -4.1, -4.12, -3.84, -4.12, -3.49, -3.49, -1.8, -0.85, 0.0, 0.0, 0.0, 0.76, 0.82, 0.82, 0.79, 2.28, 1.58, 1.55, 2.39, 3.14, 4.76, 6.35, 3.11, -0.6, -0.6, 0.0, 0.0, 0.0, 0.0, 0.0, 0.0, 0.0, 0.0, -4.71, -4.71, -4.71, -4.71, -4.71, -4.71, -4.71, -4.71, -4.71, -4.71, -4.43, -4.43, -4.12, -4.12, -4.12, -4.12, -4.12, -4.12, -3.84, -4.12, -4.12, -4.12, -4.12, -4.12, -4.12, -4.12, -4.12, -4.12, -4.45, -4.75, -4.75, -4.75, -4.75, -4.75, -4.75, -4.75, -4.47, -4.47, -4.47, -4.47, -4.47, -4.47, -4.47, -4.75, -4.75, -4.47, -4.75, -4.12, -4.12, -4.75, -5.08, -5.08, -5.08, -5.38, -5.38, -5.69, -5.69, -5.69, -5.69, -5.69, -5.69, -5.08, -5.08, -4.47, -4.47, -4.1, -4.12, -3.84, -4.12, -3.83, -3.49, -2.86, -2.48, -1.19, 0.0, 0.0, 0.0, 0.76, 0.82, 0.74, 0.8, 0.82, 1.58, 2.37, 3.91, 4.58, 7.93, 7.08, 1.49, -0.89, -0.63, -0.6, -0.61, -0.66, -0.7, 0.0, 0.0, 0.0, -4.71, -4.71, -4.71, -4.71, -4.71, -4.71, -4.71, -4.71, -4.71, -4.71, -4.43, -4.43, -4.12, -4.12, -4.12, -4.12, -4.12, -4.12, -3.84, -4.12, -4.12, -4.12, -4.12, -4.12, -4.12, -4.12, -4.12, -4.12, -4.45, -4.75, -4.75, -4.75, -4.75, -4.75, -4.75, -4.75, -4.47, -4.47, -4.47, -4.47, -4.47, -4.47, -4.47, -4.75, -4.75, -4.47, -4.75, -4.12, -4.12, -4.75, -5.08, -5.08, -5.08, -5.38, -5.38, -5.69, -5.69, -5.69, -5.69, -5.69, -5.69, -5.08, -5.08, -4.47, -4.47, -4.1, -4.12, -3.84, -4.12, -3.83, -3.49, -2.86, -2.48, -1.19, 0.0, 0.0, 0.88, 0.76, 0.82, 0.74, 0.8, 0.78, 1.56, 2.41, 3.95, 4.92, 6.43, 8.62, 6.17, 0.76, -0.89, -1.2, -1.4, -1.27, -1.4, -1.2, -1.2, -1.2]}]